PEQUAWKET POND DAM: From 11/25/2018 00:00 to 01/26/2019 00:00

Date LAKE ELEVATION [FT] PRECIPITATION INCREMENT [IN] PRECIPITATION DAILY TOTAL [IN] AIR TEMPERATURE [F] RESERVOIR RELEASE [CFS]
01/24/2019 04:00 -- -- -- -- 39.0
01/24/2019 03:00 455.07 0.07 -- 37.1 39.0
01/24/2019 02:00 455.07 0.04 -- 36.9 38.5
01/24/2019 01:00 455.06 0.00 -- 34.2 38.0
01/24/2019 00:00 455.06 0.00 -- 35.2 38.0
01/23/2019 23:00 455.06 0.00 -- 34.3 38.0
01/23/2019 22:00 455.07 0.00 -- 29.9 38.0
01/23/2019 21:00 455.06 0.00 -- 27.1 38.0
01/23/2019 20:00 455.06 0.00 -- 26.9 38.0
01/23/2019 19:00 455.06 0.00 -- 28.9 37.3
01/23/2019 18:00 455.05 0.00 -- 30.4 37.5
01/23/2019 17:00 455.06 0.00 -- 30.6 37.8
01/23/2019 16:00 455.06 0.00 -- 30.7 37.8
01/23/2019 15:00 455.06 0.00 -- 30.3 38.0
01/23/2019 14:00 455.06 0.00 -- 30.1 37.8
01/23/2019 13:00 455.06 0.00 -- 28.7 37.5
01/23/2019 12:00 455.05 0.00 -- 27.5 37.3
01/23/2019 11:00 455.06 0.00 -- 24.7 37.5
01/23/2019 10:00 455.05 0.00 -- 19.6 37.0
01/23/2019 09:00 455.06 0.00 -- 14.9 38.0
01/23/2019 08:00 455.06 0.00 -- 12.8 38.0
01/23/2019 07:00 455.06 0.00 -- 11.6 38.0
01/23/2019 06:00 455.06 0.00 -- 8.8 38.0
01/23/2019 05:00 455.05 0.00 -- 9.3 37.8
01/23/2019 04:00 455.06 0.00 -- 9.4 38.0
01/23/2019 03:00 455.06 0.00 -- 9.9 38.0
01/23/2019 02:00 455.06 0.00 -- 12.0 38.3
01/23/2019 01:00 455.07 0.00 -- 13.6 38.5
01/23/2019 00:00 455.07 0.00 0.00 14.0 38.5
01/22/2019 23:00 455.06 0.00 -- 11.0 38.5
01/22/2019 22:00 455.07 0.00 -- 9.3 38.5
01/22/2019 21:00 455.06 0.00 -- 10.3 38.5
01/22/2019 20:00 455.07 0.00 -- 12.9 38.8
01/22/2019 19:00 455.06 0.00 -- 11.5 38.8
01/22/2019 18:00 455.07 0.00 -- 14.0 39.0
01/22/2019 17:00 455.07 0.00 -- 19.3 39.3
01/22/2019 16:00 455.07 0.01 -- 24.9 39.0
01/22/2019 15:00 455.07 0.00 -- 25.3 39.0
01/22/2019 14:00 455.07 0.00 -- 25.3 39.0
01/22/2019 13:00 455.07 0.00 -- 25.5 39.3
01/22/2019 12:00 455.07 0.00 -- 20.5 38.8
01/22/2019 11:00 455.07 0.00 -- 17.1 39.5
01/22/2019 10:00 455.07 0.00 -- 15.2 39.8
01/22/2019 09:00 455.08 0.00 -- 6.7 40.0
01/22/2019 08:00 455.08 0.00 -- 0.1 40.8
01/22/2019 07:00 455.08 0.00 -- -4.7 40.5
01/22/2019 06:00 455.09 0.00 -- -2.0 38.5
01/22/2019 05:00 455.09 0.00 -- -1.2 41.0
01/22/2019 04:00 455.10 0.00 -- 4.3 42.0
01/22/2019 03:00 455.10 0.00 -- 4.4 42.3
01/22/2019 02:00 455.11 0.00 -- 4.4 41.5
01/22/2019 01:00 455.10 0.00 -- 3.1 42.3
01/22/2019 00:00 455.11 0.00 0.01 3.8 42.8
01/21/2019 23:00 455.10 0.00 -- 4.4 42.8
01/21/2019 22:00 455.11 0.00 -- 3.4 42.8
01/21/2019 21:00 455.11 0.00 -- 2.4 43.3
01/21/2019 20:00 455.11 0.00 -- 1.6 43.0
01/21/2019 19:00 455.12 0.00 -- 1.1 43.3
01/21/2019 18:00 455.11 0.00 -- 0.3 43.3
01/21/2019 17:00 455.12 0.00 -- -0.5 44.0
01/21/2019 16:00 455.11 0.00 -- 0.3 43.3
01/21/2019 15:00 455.11 0.00 -- 0.3 43.3
01/21/2019 14:00 455.12 0.00 -- 1.8 43.0
01/21/2019 13:00 455.11 0.00 -- 2.5 42.8
01/21/2019 12:00 455.11 0.00 -- 4.3 42.3
01/21/2019 11:00 455.10 0.00 -- 2.6 42.3
01/21/2019 10:00 455.10 0.00 -- 1.5 41.0
01/21/2019 09:00 455.09 0.00 -- 0.6 41.5
01/21/2019 08:00 455.09 0.00 -- 2.3 41.0
01/21/2019 07:00 455.09 0.00 -- 3.0 40.3
01/21/2019 06:00 455.08 0.00 -- 3.6 40.0
01/21/2019 05:00 455.08 0.00 -- 3.5 39.3
01/21/2019 04:00 455.07 0.00 -- 3.9 38.8
01/21/2019 03:00 455.07 0.00 -- 4.6 39.0
01/21/2019 02:00 455.07 0.00 -- 3.8 38.3
01/21/2019 01:00 455.06 0.00 -- 4.7 37.8
01/21/2019 00:00 455.06 0.00 0.00 6.0 38.0
01/20/2019 23:00 455.07 0.00 -- 6.9 39.3
01/20/2019 22:00 455.08 0.00 -- 9.0 39.3
01/20/2019 21:00 455.08 0.00 -- 11.8 40.0
01/20/2019 20:00 455.08 0.00 -- 14.9 39.3
01/20/2019 19:00 455.07 0.00 -- 15.5 39.0
01/20/2019 18:00 455.07 0.00 -- 15.0 39.0
01/20/2019 17:00 455.07 0.00 -- 15.6 39.0
01/20/2019 16:00 455.07 0.00 -- 15.3 39.0
01/20/2019 15:00 455.07 0.00 -- 14.7 38.3
01/20/2019 14:00 455.06 0.00 -- 13.7 38.0
01/20/2019 13:00 455.06 0.00 -- 14.3 38.0
01/20/2019 12:00 455.06 0.00 -- 14.4 38.5
01/20/2019 11:00 455.07 0.00 -- 14.7 39.0
01/20/2019 10:00 455.07 0.00 -- 14.2 39.3
01/20/2019 09:00 455.06 0.00 -- 14.5 39.3
01/20/2019 08:00 455.08 0.00 -- 14.4 40.0
01/20/2019 07:00 455.08 0.00 -- 13.2 39.8
01/20/2019 06:00 455.08 0.00 -- 10.6 40.0
01/20/2019 05:00 455.08 0.00 -- 10.2 40.0
01/20/2019 04:00 455.08 0.00 -- 9.6 39.3
01/20/2019 03:00 455.07 0.00 -- 10.7 39.3
01/20/2019 02:00 455.07 0.00 -- 11.7 39.3
01/20/2019 01:00 455.07 0.00 -- 11.8 39.5
01/20/2019 00:00 455.08 0.00 0.00 11.8 39.8
01/19/2019 23:00 455.07 0.00 -- 11.9 39.3
01/19/2019 22:00 455.08 0.00 -- 12.5 39.5
01/19/2019 21:00 455.07 0.00 -- 14.1 39.0
01/19/2019 20:00 455.08 0.00 -- 14.8 39.5
01/19/2019 19:00 455.08 0.00 -- 15.1 40.0
01/19/2019 18:00 455.08 0.00 -- 16.6 39.3
01/19/2019 17:00 455.07 0.00 -- 18.9 39.3
01/19/2019 16:00 455.07 0.00 -- 20.7 39.0
01/19/2019 15:00 455.08 0.00 -- 22.1 39.5
01/19/2019 14:00 455.07 0.00 -- 22.6 39.0
01/19/2019 13:00 455.07 0.00 -- 22.9 39.5
01/19/2019 12:00 455.07 0.00 -- 23.1 39.5
01/19/2019 11:00 455.07 0.00 -- 22.4 39.5
01/19/2019 10:00 455.08 0.00 -- 20.9 39.8
01/19/2019 09:00 455.08 0.00 -- 19.0 39.8
01/19/2019 08:00 455.08 0.00 -- 17.5 39.8
01/19/2019 07:00 455.09 0.00 -- 18.3 39.8
01/19/2019 06:00 455.08 0.00 -- 18.6 40.0
01/19/2019 05:00 455.08 0.00 -- 19.3 40.0
01/19/2019 04:00 455.08 0.00 -- 20.4 40.0
01/19/2019 03:00 455.08 0.00 -- 21.5 40.0
01/19/2019 02:00 455.08 0.00 -- 22.9 40.3
01/19/2019 01:00 455.09 0.00 -- 25.4 40.3
01/19/2019 00:00 455.08 0.00 0.00 27.6 40.0
01/18/2019 23:00 455.08 0.00 -- 28.8 40.0
01/18/2019 22:00 455.08 0.00 -- 23.4 40.0
01/18/2019 21:00 455.08 0.00 -- 21.9 40.0
01/18/2019 20:00 455.08 0.00 -- 24.3 40.0
01/18/2019 19:00 455.08 0.00 -- 25.2 40.0
01/18/2019 18:00 455.09 0.00 -- 26.1 40.5
01/18/2019 17:00 455.08 0.00 -- 25.8 40.5
01/18/2019 16:00 455.08 0.00 -- 25.3 40.0
01/18/2019 15:00 455.08 0.00 -- 25.1 40.0
01/18/2019 14:00 455.08 0.00 -- 25.0 39.8
01/18/2019 13:00 455.08 0.00 -- 23.8 39.8
01/18/2019 12:00 455.08 0.00 -- 21.1 40.0
01/18/2019 11:00 455.08 0.00 -- 19.6 40.0
01/18/2019 10:00 455.08 0.00 -- 16.0 40.5
01/18/2019 09:00 455.08 0.00 -- 14.6 40.5
01/18/2019 08:00 455.08 0.00 -- 11.8 40.0
01/18/2019 07:00 455.08 0.00 -- 9.9 40.5
01/18/2019 06:00 455.08 0.00 -- 8.5 40.5
01/18/2019 05:00 455.09 0.00 -- 9.4 41.0
01/18/2019 04:00 455.09 0.00 -- 11.3 40.8
01/18/2019 03:00 455.09 0.00 -- 11.5 41.3
01/18/2019 02:00 455.10 0.00 -- 13.1 41.3
01/18/2019 01:00 455.10 0.00 -- 12.8 40.8
01/18/2019 00:00 455.09 0.00 0.00 13.1 41.0
01/17/2019 23:00 455.10 0.00 -- 12.0 41.5
01/17/2019 22:00 455.10 0.00 -- 13.0 41.8
01/17/2019 21:00 455.10 0.00 -- 13.7 42.0
01/17/2019 20:00 455.10 0.00 -- 14.6 41.5
01/17/2019 19:00 455.10 0.00 -- 16.4 41.8
01/17/2019 18:00 455.11 0.00 -- 16.2 42.3
01/17/2019 17:00 455.10 0.00 -- 18.5 42.3
01/17/2019 16:00 455.11 0.00 -- 22.2 42.3
01/17/2019 15:00 455.11 0.00 -- 22.8 42.3
01/17/2019 14:00 455.09 0.00 -- 22.3 42.0
01/17/2019 13:00 455.10 0.00 -- 20.4 41.5
01/17/2019 12:00 455.09 0.00 -- 18.0 41.3
01/17/2019 11:00 455.09 0.00 -- 18.3 41.3
01/17/2019 10:00 455.09 0.00 -- 12.7 40.8
01/17/2019 09:00 455.08 0.00 -- 10.4 40.8
01/17/2019 08:00 455.09 0.00 -- 4.8 41.0
01/17/2019 07:00 455.09 0.00 -- 5.9 41.8
01/17/2019 06:00 455.10 0.00 -- 7.3 41.8
01/17/2019 05:00 455.11 0.00 -- 7.4 42.8
01/17/2019 04:00 455.11 0.00 -- 9.2 43.0
01/17/2019 03:00 455.12 0.00 -- 10.0 43.3
01/17/2019 02:00 455.12 0.00 -- 12.3 43.5
01/17/2019 01:00 455.12 0.00 -- 13.2 43.8
01/17/2019 00:00 455.11 0.00 0.00 14.2 43.0
01/16/2019 23:00 455.12 0.00 -- 18.1 43.5
01/16/2019 22:00 455.11 0.00 -- 20.9 43.0
01/16/2019 21:00 455.11 0.00 -- 27.1 43.0
01/16/2019 20:00 455.11 0.00 -- 29.5 42.5
01/16/2019 19:00 455.11 0.00 -- 32.6 42.8
01/16/2019 18:00 455.10 0.00 -- 31.6 42.3
01/16/2019 17:00 455.10 0.00 -- 33.7 42.0
01/16/2019 16:00 455.10 0.00 -- 34.6 42.0
01/16/2019 15:00 455.11 0.00 -- 34.7 42.8
01/16/2019 14:00 455.11 0.00 -- 34.8 42.8
01/16/2019 13:00 455.10 0.00 -- 33.9 41.8
01/16/2019 12:00 455.10 0.00 -- 33.3 41.8
01/16/2019 11:00 455.10 0.00 -- 28.4 41.5
01/16/2019 10:00 455.10 0.00 -- 27.0 42.0
01/16/2019 09:00 455.10 0.00 -- 26.4 41.8
01/16/2019 08:00 455.10 0.00 -- 25.3 42.0
01/16/2019 07:00 455.10 0.00 -- 25.2 41.8
01/16/2019 06:00 455.09 0.00 -- 23.3 41.3
01/16/2019 05:00 455.10 0.00 -- 21.1 42.0
01/16/2019 04:00 455.10 0.00 -- 20.9 41.8
01/16/2019 03:00 455.09 0.00 -- 21.8 41.5
01/16/2019 02:00 455.09 0.00 -- 22.6 41.0
01/16/2019 01:00 455.09 0.00 -- 23.3 41.5
01/16/2019 00:00 455.09 0.00 0.00 22.2 41.3
01/15/2019 23:00 455.09 0.00 -- 22.8 41.3
01/15/2019 22:00 455.09 0.00 -- 22.1 41.0
01/15/2019 21:00 455.09 0.00 -- 22.5 41.3
01/15/2019 20:00 455.09 0.00 -- 22.0 41.0
01/15/2019 19:00 455.09 0.00 -- 23.8 41.0
01/15/2019 18:00 455.10 0.00 -- 24.6 41.3
01/15/2019 17:00 455.09 0.01 -- 27.9 41.0
01/15/2019 16:00 455.09 0.00 -- 32.3 41.0
01/15/2019 15:00 455.09 0.00 -- 33.9 41.0
01/15/2019 14:00 455.09 0.00 -- 35.4 40.3
01/15/2019 13:00 455.09 0.00 -- 35.6 41.0
01/15/2019 12:00 455.09 0.00 -- 31.0 41.0
01/15/2019 11:00 455.09 0.00 -- 26.9 40.8
01/15/2019 10:00 455.08 0.00 -- 20.0 40.8
01/15/2019 09:00 455.09 0.00 -- 10.7 40.8
01/15/2019 08:00 455.09 0.00 -- 5.8 41.0
01/15/2019 07:00 455.09 0.00 -- 4.3 41.3
01/15/2019 06:00 455.09 0.00 -- 4.2 41.3
01/15/2019 05:00 455.10 0.00 -- 4.0 41.8
01/15/2019 04:00 455.10 0.00 -- 1.6 41.8
01/15/2019 03:00 455.10 0.00 -- 2.4 42.0
01/15/2019 02:00 455.10 0.00 -- 2.7 42.0
01/15/2019 01:00 455.10 0.00 -- 3.7 42.5
01/15/2019 00:00 455.11 0.00 0.01 5.7 42.0
01/14/2019 23:00 455.10 0.00 -- 6.9 42.3
01/14/2019 22:00 455.10 0.00 -- 9.1 42.0
01/14/2019 21:00 455.11 0.00 -- 11.1 42.8
01/14/2019 20:00 455.10 0.00 -- 13.7 42.0
01/14/2019 19:00 455.11 0.00 -- 15.7 42.5
01/14/2019 18:00 455.11 0.00 -- 18.5 43.0
01/14/2019 17:00 455.11 0.01 -- 23.5 42.8
01/14/2019 16:00 455.11 0.00 -- 28.6 42.5
01/14/2019 15:00 455.11 0.00 -- 29.9 42.8
01/14/2019 14:00 455.11 0.00 -- 30.9 42.8
01/14/2019 13:00 455.11 0.00 -- 27.0 43.0
01/14/2019 12:00 455.11 0.00 -- 23.7 43.0
01/14/2019 11:00 455.11 0.00 -- 17.6 42.8
01/14/2019 10:00 455.11 0.00 -- 11.7 42.8
01/14/2019 09:00 455.11 0.00 -- 2.2 43.0
01/14/2019 08:00 455.11 0.00 -- -5.3 43.0
01/14/2019 07:00 455.12 0.00 -- -7.8 43.5
01/14/2019 06:00 455.12 0.00 -- -7.6 44.0
01/14/2019 05:00 455.12 0.00 -- -5.7 44.0
01/14/2019 04:00 455.12 0.00 -- -6.2 44.3
01/14/2019 03:00 455.13 0.00 -- -5.1 44.0
01/14/2019 02:00 455.13 0.00 -- -4.2 45.0
01/14/2019 01:00 455.13 0.00 -- -2.8 45.3
01/14/2019 00:00 455.13 0.00 0.01 -1.5 45.8
01/13/2019 23:00 455.13 0.00 -- -0.3 45.5
01/13/2019 22:00 455.13 0.00 -- 1.3 45.5
01/13/2019 21:00 455.13 0.00 -- 3.4 45.5
01/13/2019 20:00 455.13 0.00 -- 5.9 45.8
01/13/2019 19:00 455.14 0.00 -- 9.7 45.8
01/13/2019 18:00 455.14 0.00 -- 13.8 45.8
01/13/2019 17:00 455.14 0.00 -- 18.5 46.0
01/13/2019 16:00 455.14 0.00 -- 25.7 46.0
01/13/2019 15:00 455.14 0.00 -- 28.6 46.0
01/13/2019 14:00 455.14 0.00 -- 29.0 46.0
01/13/2019 13:00 455.14 0.00 -- 26.9 45.8
01/13/2019 12:00 455.14 0.00 -- 24.3 46.0
01/13/2019 11:00 455.14 0.00 -- 19.7 45.8
01/13/2019 10:00 455.14 0.00 -- 10.7 46.0
01/13/2019 09:00 455.14 0.00 -- 3.5 46.3
01/13/2019 08:00 455.14 0.00 -- -6.3 46.5
01/13/2019 07:00 455.14 0.00 -- -6.1 50.3
01/13/2019 06:00 455.15 0.00 -- -3.9 51.5
01/13/2019 05:00 455.15 0.00 -- -4.8 49.0
01/13/2019 04:00 455.16 0.00 -- -4.4 52.0
01/13/2019 03:00 455.16 0.00 -- -0.9 52.5
01/13/2019 02:00 455.16 0.00 -- -2.0 52.8
01/13/2019 01:00 455.17 0.00 -- -0.9 52.8
01/13/2019 00:00 455.16 0.00 0.00 0.6 52.8
01/12/2019 23:00 455.16 0.00 -- 3.5 53.5
01/12/2019 22:00 455.17 0.00 -- 3.8 53.8
01/12/2019 21:00 455.18 0.00 -- 6.5 53.5
01/12/2019 20:00 455.17 0.00 -- 11.7 53.8
01/12/2019 19:00 455.17 0.00 -- 12.1 53.8
01/12/2019 18:00 455.17 0.00 -- 14.8 54.0
01/12/2019 17:00 455.18 0.00 -- 15.5 55.3
01/12/2019 16:00 455.19 0.00 -- 17.1 55.8
01/12/2019 15:00 455.18 0.00 -- 19.4 55.0
01/12/2019 14:00 455.19 0.00 -- 19.2 55.3
01/12/2019 13:00 455.18 0.00 -- 19.2 54.8
01/12/2019 12:00 455.17 0.00 -- 18.0 54.5
01/12/2019 11:00 455.17 0.00 -- 16.6 54.0
01/12/2019 10:00 455.17 0.00 -- 12.8 53.3
01/12/2019 09:00 455.17 0.00 -- 9.5 53.3
01/12/2019 08:00 455.16 0.00 -- 6.4 53.5
01/12/2019 07:00 455.17 0.00 -- 5.3 53.8
01/12/2019 06:00 455.17 0.00 -- 5.3 53.8
01/12/2019 05:00 455.17 0.00 -- 6.3 54.3
01/12/2019 04:00 455.19 0.00 -- 7.1 54.5
01/12/2019 03:00 455.18 0.00 -- 7.0 55.3
01/12/2019 02:00 455.19 0.00 -- 8.4 55.5
01/12/2019 01:00 455.19 0.00 -- 6.8 56.3
01/12/2019 00:00 455.18 0.00 0.00 7.0 56.3
01/11/2019 23:00 455.20 0.00 -- 7.8 58.5
01/11/2019 22:00 455.21 0.00 -- 7.3 58.0
01/11/2019 21:00 455.20 0.00 -- 7.3 59.5
01/11/2019 20:00 455.23 0.00 -- 6.9 60.8
01/11/2019 19:00 455.23 0.00 -- 6.5 61.0
01/11/2019 18:00 455.23 0.00 -- 7.0 61.0
01/11/2019 17:00 455.24 0.00 -- 8.5 61.8
01/11/2019 16:00 455.23 0.00 -- 11.2 61.8
01/11/2019 15:00 455.25 0.00 -- 14.5 63.0
01/11/2019 14:00 455.25 0.00 -- 15.8 63.5
01/11/2019 13:00 455.25 0.00 -- 15.2 62.3
01/11/2019 12:00 455.24 0.00 -- 18.0 61.0
01/11/2019 11:00 455.23 0.00 -- 15.2 62.3
01/11/2019 10:00 455.24 0.00 -- 16.1 61.3
01/11/2019 09:00 455.23 0.00 -- 16.4 61.3
01/11/2019 08:00 455.23 0.00 -- 13.6 62.0
01/11/2019 07:00 455.24 0.00 -- 13.6 62.0
01/11/2019 06:00 455.25 0.00 -- 13.5 62.5
01/11/2019 05:00 455.24 0.00 -- 14.6 63.3
01/11/2019 04:00 455.25 0.00 -- 14.0 64.3
01/11/2019 03:00 455.24 0.00 -- 14.7 64.0
01/11/2019 02:00 455.25 0.00 -- 15.3 64.3
01/11/2019 01:00 455.25 0.00 -- 17.0 64.5
01/11/2019 00:00 455.26 0.00 0.00 17.4 64.8
01/10/2019 23:00 455.24 0.00 -- 18.2 64.8
01/10/2019 22:00 455.28 0.00 -- 18.3 65.8
01/10/2019 21:00 455.26 0.00 -- 18.8 65.5
01/10/2019 20:00 455.26 0.00 -- 19.5 66.5
01/10/2019 19:00 455.28 0.00 -- 21.1 66.8
01/10/2019 18:00 455.27 0.00 -- 22.2 66.8
01/10/2019 17:00 455.27 0.00 -- 23.1 66.0
01/10/2019 16:00 455.26 0.00 -- 25.0 65.5
01/10/2019 15:00 455.27 0.00 -- 26.4 66.0
01/10/2019 14:00 455.27 0.00 -- 27.8 66.0
01/10/2019 13:00 455.28 0.00 -- 28.4 67.3
01/10/2019 12:00 455.27 0.00 -- 30.0 66.0
01/10/2019 11:00 455.28 0.00 -- 30.3 67.5
01/10/2019 10:00 455.28 0.00 -- 29.7 66.8
01/10/2019 09:00 455.29 0.00 -- 29.6 67.5
01/10/2019 08:00 455.28 0.00 -- 29.1 67.8
01/10/2019 07:00 455.29 0.00 -- 28.8 68.3
01/10/2019 06:00 455.28 0.00 -- 28.4 67.8
01/10/2019 05:00 455.26 0.00 -- 28.7 66.5
01/10/2019 04:00 455.28 0.00 -- 29.4 67.8
01/10/2019 03:00 455.28 0.00 -- 30.0 67.8
01/10/2019 02:00 455.28 0.00 -- 31.1 68.0
01/10/2019 01:00 455.28 0.00 -- 32.5 67.0
01/10/2019 00:00 455.28 0.00 0.00 32.2 67.5
01/09/2019 23:00 455.28 0.00 -- 31.7 67.5
01/09/2019 22:00 455.29 0.00 -- 32.5 68.0
01/09/2019 21:00 455.28 0.01 -- 32.3 68.0
01/09/2019 20:00 455.27 0.00 -- 33.4 68.0
01/09/2019 19:00 455.29 0.00 -- 33.9 68.3
01/09/2019 18:00 455.29 0.01 -- 34.7 69.0
01/09/2019 17:00 455.29 0.01 -- 34.3 68.0
01/09/2019 16:00 455.28 0.01 -- 34.4 67.5
01/09/2019 15:00 455.28 0.00 -- 35.3 67.8
01/09/2019 14:00 455.29 0.00 -- 35.5 67.0
01/09/2019 13:00 455.26 0.00 -- 34.6 65.5
01/09/2019 12:00 455.30 0.00 -- 33.2 67.0
01/09/2019 11:00 455.23 0.00 -- 33.0 61.8
01/09/2019 10:00 455.24 0.00 -- 32.8 61.8
01/09/2019 09:00 455.25 0.00 -- 32.4 64.0
01/09/2019 08:00 455.25 0.00 -- 31.0 64.0
01/09/2019 07:00 455.25 0.00 -- 29.8 63.5
01/09/2019 06:00 455.25 0.00 -- 29.2 63.5
01/09/2019 05:00 455.25 0.00 -- 29.0 63.5
01/09/2019 04:00 455.25 0.00 -- 28.7 63.5
01/09/2019 03:00 455.25 0.00 -- 28.6 62.5
01/09/2019 02:00 455.23 0.00 -- 28.3 61.8
01/09/2019 01:00 455.24 0.00 -- 27.9 62.5
01/09/2019 00:00 455.24 0.00 0.04 27.7 63.3
01/08/2019 23:00 455.25 0.00 -- 28.4 63.8
01/08/2019 22:00 455.26 0.00 -- 27.3 63.5
01/08/2019 21:00 455.23 0.00 -- 25.5 63.0
01/08/2019 20:00 455.25 0.00 -- 25.1 63.3
01/08/2019 19:00 455.25 0.00 -- 25.1 62.8
01/08/2019 18:00 455.25 0.00 -- 24.4 63.0
01/08/2019 17:00 455.24 0.00 -- 23.6 62.8
01/08/2019 16:00 455.25 0.00 -- 23.5 62.8
01/08/2019 15:00 455.24 0.00 -- 23.1 62.8
01/08/2019 14:00 455.24 0.00 -- 22.6 61.3
01/08/2019 13:00 455.23 0.00 -- 21.5 61.0
01/08/2019 12:00 455.22 0.00 -- 20.5 59.5
01/08/2019 11:00 455.22 0.00 -- 19.6 58.8
01/08/2019 10:00 455.21 0.00 -- 18.6 59.3
01/08/2019 09:00 455.22 0.00 -- 18.1 60.0
01/08/2019 08:00 455.23 0.00 -- 17.3 60.8
01/08/2019 07:00 455.24 0.00 -- 17.5 61.5
01/08/2019 06:00 455.24 0.00 -- 17.9 62.3
01/08/2019 05:00 455.25 0.00 -- 16.4 62.5
01/08/2019 04:00 455.24 0.00 -- 16.6 62.8
01/08/2019 03:00 455.24 0.00 -- 18.1 62.5
01/08/2019 02:00 455.24 0.00 -- 18.5 62.5
01/08/2019 01:00 455.24 0.00 -- 17.9 62.8
01/08/2019 00:00 455.25 0.00 0.00 16.3 63.0
01/07/2019 23:00 455.25 0.00 -- 15.1 63.5
01/07/2019 22:00 455.25 0.00 -- 14.9 63.5
01/07/2019 21:00 455.26 0.00 -- 13.5 62.8
01/07/2019 20:00 455.24 0.00 -- 13.3 62.8
01/07/2019 19:00 455.24 0.00 -- 17.3 63.3
01/07/2019 18:00 455.25 0.00 -- 18.3 63.8
01/07/2019 17:00 455.25 0.00 -- 20.4 63.5
01/07/2019 16:00 455.25 0.00 -- 24.1 63.3
01/07/2019 15:00 455.25 0.00 -- 27.4 62.8
01/07/2019 14:00 455.25 0.00 -- 26.3 63.3
01/07/2019 13:00 455.24 0.00 -- 25.8 63.0
01/07/2019 12:00 455.24 0.00 -- 23.5 63.3
01/07/2019 11:00 455.25 0.00 -- 20.1 62.8
01/07/2019 10:00 455.23 0.00 -- 17.5 61.8
01/07/2019 09:00 455.24 0.00 -- 11.5 63.0
01/07/2019 08:00 455.25 0.00 -- 7.0 64.0
01/07/2019 07:00 455.25 0.00 -- 8.6 64.5
01/07/2019 06:00 455.27 0.00 -- 10.4 65.3
01/07/2019 05:00 455.26 0.00 -- 13.0 65.5
01/07/2019 04:00 455.27 0.00 -- 12.1 66.3
01/07/2019 03:00 455.27 0.00 -- 12.8 66.5
01/07/2019 02:00 455.27 0.00 -- 14.4 66.3
01/07/2019 01:00 455.29 0.00 -- 16.5 67.5
01/07/2019 00:00 455.29 0.00 0.00 16.7 67.3
01/06/2019 23:00 455.27 0.00 -- 19.4 67.0
01/06/2019 22:00 455.27 0.00 -- 19.7 67.3
01/06/2019 21:00 455.28 0.00 -- 20.2 70.3
01/06/2019 20:00 455.31 0.01 -- 21.8 71.8
01/06/2019 19:00 455.28 0.00 -- 24.1 69.8
01/06/2019 18:00 455.29 0.00 -- 25.3 68.8
01/06/2019 17:00 455.29 0.00 -- 26.9 70.3
01/06/2019 16:00 455.30 0.00 -- 30.2 69.0
01/06/2019 15:00 455.29 0.00 -- 33.1 68.8
01/06/2019 14:00 455.30 0.01 -- 38.4 70.0
01/06/2019 13:00 455.30 0.02 -- 38.8 70.0
01/06/2019 12:00 455.29 0.00 -- 38.9 69.5
01/06/2019 11:00 455.30 0.00 -- 39.4 70.3
01/06/2019 10:00 455.30 0.00 -- 36.1 70.5
01/06/2019 09:00 455.30 0.00 -- 33.2 70.8
01/06/2019 08:00 455.30 0.00 -- 35.1 70.5
01/06/2019 07:00 455.31 0.00 -- 34.5 71.3
01/06/2019 06:00 455.30 0.00 -- 36.3 70.8
01/06/2019 05:00 455.31 0.00 -- 25.4 70.8
01/06/2019 04:00 455.30 0.00 -- 20.7 71.0
01/06/2019 03:00 455.31 0.00 -- 19.6 71.0
01/06/2019 02:00 455.31 0.00 -- 21.1 71.0
01/06/2019 01:00 455.31 0.00 -- 22.2 71.5
01/06/2019 00:00 455.32 0.00 0.04 23.6 72.0
01/05/2019 23:00 455.31 0.00 -- 24.7 72.3
01/05/2019 22:00 455.31 0.00 -- 25.8 72.5
01/05/2019 21:00 455.31 0.00 -- 28.0 73.0
01/05/2019 20:00 455.32 0.00 -- 29.4 73.3
01/05/2019 19:00 455.33 0.00 -- 30.9 73.3
01/05/2019 18:00 455.33 0.00 -- 33.3 74.5
01/05/2019 17:00 455.32 0.00 -- 36.2 73.0
01/05/2019 16:00 455.32 0.01 -- 37.3 72.5
01/05/2019 15:00 455.32 0.00 -- 37.8 73.8
01/05/2019 14:00 455.33 0.00 -- 35.7 73.8
01/05/2019 13:00 455.33 0.00 -- 33.0 74.5
01/05/2019 12:00 455.32 0.00 -- 30.9 73.8
01/05/2019 11:00 455.32 0.00 -- 28.1 73.8
01/05/2019 10:00 455.33 0.00 -- 26.3 74.3
01/05/2019 09:00 455.33 0.00 -- 23.9 74.5
01/05/2019 08:00 455.35 0.00 -- 20.8 74.5
01/05/2019 07:00 455.35 0.00 -- 19.4 75.8
01/05/2019 06:00 455.32 0.00 -- 19.5 75.0
01/05/2019 05:00 455.33 0.00 -- 21.7 75.8
01/05/2019 04:00 455.34 0.00 -- 21.3 75.8
01/05/2019 03:00 455.35 0.00 -- 23.2 76.3
01/05/2019 02:00 455.33 0.00 -- 22.0 76.5
01/05/2019 01:00 455.34 0.00 -- 23.7 77.0
01/05/2019 00:00 455.36 0.00 0.01 24.4 77.5
01/04/2019 23:00 455.35 0.00 -- 25.6 77.8
01/04/2019 22:00 455.37 0.00 -- 26.1 77.8
01/04/2019 21:00 455.36 0.00 -- 26.3 78.5
01/04/2019 20:00 455.36 0.00 -- 27.6 79.0
01/04/2019 19:00 455.36 0.00 -- 28.7 78.5
01/04/2019 18:00 455.36 0.00 -- 33.0 79.3
01/04/2019 17:00 455.36 0.01 -- 36.2 79.5
01/04/2019 16:00 455.38 0.02 -- 40.0 79.5
01/04/2019 15:00 455.37 0.00 -- 41.5 79.0
01/04/2019 14:00 455.37 0.00 -- 40.7 79.5
01/04/2019 13:00 455.37 0.00 -- 37.8 79.3
01/04/2019 12:00 455.37 0.00 -- 37.1 79.8
01/04/2019 11:00 455.39 0.00 -- 35.6 80.5
01/04/2019 10:00 455.38 0.00 -- 34.6 81.0
01/04/2019 09:00 455.38 0.00 -- 33.3 80.3
01/04/2019 08:00 455.39 0.00 -- 30.6 82.0
01/04/2019 07:00 455.38 0.00 -- 30.7 82.3
01/04/2019 06:00 455.38 0.00 -- 30.1 82.5
01/04/2019 05:00 455.39 0.00 -- 29.9 82.8
01/04/2019 04:00 455.37 0.00 -- 30.3 81.8
01/04/2019 03:00 455.40 0.00 -- 30.3 83.5
01/04/2019 02:00 455.39 0.00 -- 29.4 83.5
01/04/2019 01:00 455.40 0.00 -- 30.8 83.3
01/04/2019 00:00 455.41 0.00 0.03 31.2 84.3
01/03/2019 23:00 455.39 0.00 -- 29.9 84.0
01/03/2019 22:00 455.39 0.00 -- 28.1 83.8
01/03/2019 21:00 455.40 0.00 -- 27.1 85.0
01/03/2019 20:00 455.41 0.00 -- 27.5 85.3
01/03/2019 19:00 455.41 0.00 -- 28.6 85.3
01/03/2019 18:00 455.41 0.00 -- 28.8 85.5
01/03/2019 17:00 455.42 0.01 -- 30.7 87.5
01/03/2019 16:00 455.41 0.02 -- 32.7 86.3
01/03/2019 15:00 455.41 0.02 -- 37.1 86.3
01/03/2019 14:00 455.43 0.02 -- 39.3 87.3
01/03/2019 13:00 455.43 0.00 -- 32.6 87.5
01/03/2019 12:00 455.43 0.00 -- 28.8 87.5
01/03/2019 11:00 455.42 0.00 -- 25.8 87.5
01/03/2019 10:00 455.41 0.00 -- 21.0 86.3
01/03/2019 09:00 455.42 0.00 -- 20.5 87.5
01/03/2019 08:00 455.43 0.00 -- 19.5 87.5
01/03/2019 07:00 455.42 0.00 -- 18.8 88.0
01/03/2019 06:00 455.43 0.00 -- 19.2 89.3
01/03/2019 05:00 455.44 0.00 -- 18.2 88.8
01/03/2019 04:00 455.44 0.00 -- 18.8 89.0
01/03/2019 03:00 455.44 0.00 -- 19.7 88.5
01/03/2019 02:00 455.44 0.00 -- 19.5 90.0
01/03/2019 01:00 455.46 0.00 -- 19.7 90.3
01/03/2019 00:00 455.43 0.00 0.07 18.8 89.3
01/02/2019 23:00 455.44 0.00 -- 18.3 91.0
01/02/2019 22:00 455.44 0.00 -- 18.6 88.8
01/02/2019 21:00 455.44 0.00 -- 17.3 91.5
01/02/2019 20:00 455.45 0.00 -- 16.9 90.5
01/02/2019 19:00 455.45 0.00 -- 18.7 90.8
01/02/2019 18:00 455.45 0.00 -- 20.7 90.8
01/02/2019 17:00 455.46 0.00 -- 23.8 91.0
01/02/2019 16:00 455.46 0.00 -- 28.5 92.3
01/02/2019 15:00 455.44 0.00 -- 33.3 90.3
01/02/2019 14:00 455.45 0.00 -- 30.3 91.3
01/02/2019 13:00 455.45 0.00 -- 31.8 90.5
01/02/2019 12:00 455.46 0.00 -- 27.5 91.3
01/02/2019 11:00 455.47 0.00 -- 26.7 92.3
01/02/2019 10:00 455.44 0.00 -- 23.0 90.8
01/02/2019 09:00 455.44 0.00 -- 19.3 91.3
01/02/2019 08:00 455.44 0.00 -- 17.6 90.8
01/02/2019 07:00 455.44 0.00 -- 18.4 91.3
01/02/2019 06:00 455.45 0.00 -- 16.5 91.3
01/02/2019 05:00 455.44 0.00 -- 13.4 89.8
01/02/2019 04:00 455.45 0.00 -- 14.4 92.0
01/02/2019 03:00 455.45 0.00 -- 15.1 91.0
01/02/2019 02:00 455.45 0.00 -- 16.5 90.8
01/02/2019 01:00 455.44 0.00 -- 18.9 89.8
01/02/2019 00:00 455.45 0.00 0.00 21.3 90.0
01/01/2019 23:00 455.44 0.00 -- 24.6 89.8
01/01/2019 22:00 455.42 0.00 -- 26.6 88.8
01/01/2019 21:00 455.45 0.00 -- 28.2 89.8
01/01/2019 20:00 455.42 0.00 -- 30.6 87.8
01/01/2019 19:00 455.43 0.00 -- 32.7 86.8
01/01/2019 18:00 455.42 0.01 -- 34.2 86.5
01/01/2019 17:00 455.42 0.01 -- 34.9 87.0
01/01/2019 16:00 455.41 0.03 -- 36.2 85.3
01/01/2019 15:00 455.42 0.03 -- 37.6 86.5
01/01/2019 14:00 455.42 0.05 -- 39.2 86.0
01/01/2019 13:00 455.39 0.07 -- 40.2 83.5
01/01/2019 12:00 455.41 0.13 -- 41.8 83.3
01/01/2019 11:00 455.39 0.11 -- 43.7 82.5
01/01/2019 10:00 455.40 0.08 -- 37.8 83.8
01/01/2019 09:00 455.40 0.03 -- 34.4 85.5
01/01/2019 08:00 455.39 0.03 -- 33.0 82.5
01/01/2019 07:00 455.37 0.00 -- 32.5 82.3
01/01/2019 06:00 455.40 0.00 -- 32.4 83.0
01/01/2019 05:00 455.38 0.00 -- 32.5 81.0
01/01/2019 04:00 455.38 0.00 -- 32.5 81.0
01/01/2019 03:00 455.37 0.00 -- 32.5 80.0
01/01/2019 02:00 455.36 0.00 -- 32.6 79.3
01/01/2019 01:00 455.38 0.00 -- 32.7 80.0
01/01/2019 00:00 455.37 0.00 0.58 32.1 78.3
12/31/2018 23:00 455.35 0.00 -- 31.1 76.5
12/31/2018 22:00 455.35 0.00 -- 30.8 77.0
12/31/2018 21:00 455.36 0.00 -- 31.2 77.0
12/31/2018 20:00 455.37 0.00 -- 31.6 77.0
12/31/2018 19:00 455.38 0.00 -- 32.1 81.0
12/31/2018 18:00 455.37 0.00 -- 31.9 78.5
12/31/2018 17:00 455.37 0.00 -- 32.7 79.3
12/31/2018 16:00 455.38 0.00 -- 36.5 80.3
12/31/2018 15:00 455.36 0.00 -- 38.0 80.0
12/31/2018 14:00 455.37 0.00 -- 38.5 79.5
12/31/2018 13:00 455.36 0.00 -- 35.8 78.8
12/31/2018 12:00 455.36 0.00 -- 33.7 80.0
12/31/2018 11:00 455.39 0.00 -- 33.2 80.5
12/31/2018 10:00 455.37 0.00 -- 27.7 80.5
12/31/2018 09:00 455.37 0.00 -- 23.3 81.3
12/31/2018 08:00 455.39 0.00 -- 21.4 81.8
12/31/2018 07:00 455.39 0.00 -- 22.6 81.5
12/31/2018 06:00 455.38 0.00 -- 22.5 82.0
12/31/2018 05:00 455.40 0.00 -- 22.2 82.8
12/31/2018 04:00 455.40 0.00 -- 22.4 83.0
12/31/2018 03:00 455.39 0.00 -- 22.1 82.5
12/31/2018 02:00 455.39 0.00 -- 22.7 83.0
12/31/2018 01:00 455.40 0.00 -- 22.5 83.8
12/31/2018 00:00 455.40 0.00 0.00 23.2 83.5
12/30/2018 23:00 455.40 0.00 -- 22.9 84.0
12/30/2018 22:00 455.41 0.00 -- 23.1 85.3
12/30/2018 21:00 455.40 0.00 -- 23.3 85.3
12/30/2018 20:00 455.41 0.00 -- 23.1 85.0
12/30/2018 19:00 455.43 0.00 -- 24.9 85.8
12/30/2018 18:00 455.42 0.00 -- 26.8 85.5
12/30/2018 17:00 455.41 0.00 -- 26.4 86.0
12/30/2018 16:00 455.41 0.00 -- 28.3 86.0
12/30/2018 15:00 455.42 0.00 -- 31.3 85.3
12/30/2018 14:00 455.42 0.00 -- 30.0 86.0
12/30/2018 13:00 455.40 0.00 -- 26.8 85.8
12/30/2018 12:00 455.40 0.00 -- 24.8 85.8
12/30/2018 11:00 455.42 0.00 -- 26.2 86.5
12/30/2018 10:00 455.42 0.00 -- 20.4 86.8
12/30/2018 09:00 455.40 0.00 -- 18.4 85.8
12/30/2018 08:00 455.42 0.00 -- 17.6 87.8
12/30/2018 07:00 455.41 0.00 -- 16.7 86.5
12/30/2018 06:00 455.41 0.00 -- 16.1 87.3
12/30/2018 05:00 455.42 0.00 -- 15.1 86.3
12/30/2018 04:00 455.44 0.00 -- 13.6 86.8
12/30/2018 03:00 455.42 0.00 -- 14.7 86.8
12/30/2018 02:00 455.40 0.00 -- 17.5 85.5
12/30/2018 01:00 455.44 0.00 -- 20.3 86.8
12/30/2018 00:00 455.43 0.00 0.00 21.9 86.8
12/29/2018 23:00 455.42 0.00 -- 22.3 86.8
12/29/2018 22:00 455.42 0.00 -- 23.8 86.0
12/29/2018 21:00 455.42 0.00 -- 25.1 85.5
12/29/2018 20:00 455.41 0.00 -- 26.5 85.0
12/29/2018 19:00 455.41 0.00 -- 28.8 85.8
12/29/2018 18:00 455.41 0.00 -- 30.3 86.0
12/29/2018 17:00 455.41 0.01 -- 32.9 85.8
12/29/2018 16:00 455.40 0.01 -- 34.8 84.5
12/29/2018 15:00 455.39 0.01 -- 37.0 83.8
12/29/2018 14:00 455.41 0.02 -- 40.6 85.5
12/29/2018 13:00 455.39 0.06 -- 42.9 83.8
12/29/2018 12:00 455.38 0.05 -- 42.1 82.5
12/29/2018 11:00 455.39 0.05 -- 42.3 83.0
12/29/2018 10:00 455.38 0.03 -- 38.0 82.5
12/29/2018 09:00 455.39 0.02 -- 34.2 81.0
12/29/2018 08:00 455.37 0.00 -- 34.9 81.5
12/29/2018 07:00 455.38 0.00 -- 32.7 81.3
12/29/2018 06:00 455.38 0.00 -- 32.3 81.8
12/29/2018 05:00 455.39 0.00 -- 32.2 81.8
12/29/2018 04:00 455.40 0.00 -- 31.9 81.5
12/29/2018 03:00 455.38 0.00 -- 32.0 81.8
12/29/2018 02:00 455.38 0.01 -- 32.4 82.8
12/29/2018 01:00 455.39 0.00 -- 32.3 82.0
12/29/2018 00:00 455.38 0.00 0.27 32.5 82.3
12/28/2018 23:00 455.39 0.01 -- 32.4 82.5
12/28/2018 22:00 455.38 0.01 -- 32.5 82.0
12/28/2018 21:00 455.39 0.01 -- 32.6 82.0
12/28/2018 20:00 455.39 0.02 -- 32.5 83.0
12/28/2018 19:00 455.38 0.01 -- 32.3 83.0
12/28/2018 18:00 455.37 0.02 -- 32.4 83.0
12/28/2018 17:00 455.39 0.04 -- 32.2 80.0
12/28/2018 16:00 455.38 0.05 -- 32.1 81.0
12/28/2018 15:00 455.39 0.02 -- 32.0 83.0
12/28/2018 14:00 455.37 0.05 -- 32.0 80.3
12/28/2018 13:00 455.38 0.08 -- 30.9 79.5
12/28/2018 12:00 455.37 0.00 -- 28.7 79.3
12/28/2018 11:00 455.36 0.00 -- 27.0 78.0
12/28/2018 10:00 455.37 0.00 -- 24.3 78.8
12/28/2018 09:00 455.35 0.00 -- 23.1 79.0
12/28/2018 08:00 455.36 0.00 -- 22.2 78.3
12/28/2018 07:00 455.36 0.00 -- 21.4 78.3
12/28/2018 06:00 455.36 0.00 -- 21.4 78.5
12/28/2018 05:00 455.34 0.00 -- 20.8 77.5
12/28/2018 04:00 455.36 0.00 -- 21.7 78.3
12/28/2018 03:00 455.35 0.00 -- 21.6 79.0
12/28/2018 02:00 455.36 0.00 -- 20.5 79.0
12/28/2018 01:00 455.37 0.00 -- 20.7 79.8
12/28/2018 00:00 455.37 0.00 0.32 20.1 79.3
12/27/2018 23:00 455.39 0.00 -- 20.4 79.5
12/27/2018 22:00 455.36 0.00 -- 22.2 80.3
12/27/2018 21:00 455.37 0.00 -- 22.8 80.5
12/27/2018 20:00 455.38 0.00 -- 23.4 81.3
12/27/2018 19:00 455.38 0.00 -- 23.1 80.8
12/27/2018 18:00 455.38 0.00 -- 23.4 81.5
12/27/2018 17:00 455.39 0.00 -- 26.6 82.3
12/27/2018 16:00 455.38 0.00 -- 27.8 81.8
12/27/2018 15:00 455.37 0.00 -- 29.7 81.3
12/27/2018 14:00 455.40 0.00 -- 30.2 83.3
12/27/2018 13:00 455.41 0.00 -- 30.3 83.8
12/27/2018 12:00 455.39 0.00 -- 27.8 83.0
12/27/2018 11:00 455.40 0.00 -- 28.2 82.8
12/27/2018 10:00 455.40 0.00 -- 22.1 83.0
12/27/2018 09:00 455.40 0.00 -- 19.0 83.8
12/27/2018 08:00 455.41 0.00 -- 14.3 85.0
12/27/2018 07:00 455.40 0.00 -- 15.0 84.0
12/27/2018 06:00 455.40 0.00 -- 16.5 86.0
12/27/2018 05:00 455.41 0.00 -- 21.6 84.3
12/27/2018 04:00 455.41 0.00 -- 24.2 85.0
12/27/2018 03:00 455.41 0.00 -- 22.6 86.5
12/27/2018 02:00 455.41 0.00 -- 26.0 86.8
12/27/2018 01:00 455.41 0.00 -- 26.7 86.3
12/27/2018 00:00 455.41 0.00 0.00 24.6 87.3
12/26/2018 23:00 455.41 0.00 -- 24.4 86.8
12/26/2018 22:00 455.43 0.00 -- 24.1 87.8
12/26/2018 21:00 455.42 0.00 -- 23.6 87.8
12/26/2018 20:00 455.44 0.00 -- 24.2 88.5
12/26/2018 19:00 455.43 0.00 -- 24.3 89.0
12/26/2018 18:00 455.42 0.00 -- 24.9 89.5
12/26/2018 17:00 455.44 0.00 -- 26.1 89.8
12/26/2018 16:00 455.44 0.00 -- 28.2 90.3
12/26/2018 15:00 455.45 0.00 -- 29.2 90.3
12/26/2018 14:00 455.44 0.00 -- 31.4 90.0
12/26/2018 13:00 455.44 0.00 -- 31.7 90.5
12/26/2018 12:00 455.44 0.00 -- 30.3 91.0
12/26/2018 11:00 455.46 0.00 -- 26.9 93.0
12/26/2018 10:00 455.45 0.00 -- 26.4 92.3
12/26/2018 09:00 455.45 0.00 -- 23.0 91.8
12/26/2018 08:00 455.46 0.00 -- 21.8 92.8
12/26/2018 07:00 455.47 0.00 -- 21.8 94.0
12/26/2018 06:00 455.47 0.00 -- 17.2 95.3
12/26/2018 05:00 455.48 0.00 -- 17.6 95.3
12/26/2018 04:00 455.49 0.00 -- 11.1 96.5
12/26/2018 03:00 455.50 0.00 -- 10.2 95.8
12/26/2018 02:00 455.50 0.00 -- 11.9 97.3
12/26/2018 01:00 455.49 0.00 -- 11.2 98.8
12/26/2018 00:00 455.50 0.00 0.00 10.8 99.5
12/25/2018 23:00 455.51 0.00 -- 11.9 100.5
12/25/2018 22:00 455.51 0.00 -- 13.9 100.3
12/25/2018 21:00 455.52 0.00 -- 15.6 101.5
12/25/2018 20:00 455.54 0.00 -- 18.8 103.3
12/25/2018 19:00 455.54 0.00 -- 22.8 104.0
12/25/2018 18:00 455.53 0.00 -- 23.9 102.5
12/25/2018 17:00 455.55 0.00 -- 24.9 104.0
12/25/2018 16:00 455.53 0.00 -- 26.9 105.0
12/25/2018 15:00 455.54 0.00 -- 29.9 104.3
12/25/2018 14:00 455.55 0.00 -- 31.1 106.3
12/25/2018 13:00 455.54 0.00 -- 29.9 106.5
12/25/2018 12:00 455.54 0.00 -- 28.3 104.8
12/25/2018 11:00 455.56 0.00 -- 27.2 107.0
12/25/2018 10:00 455.55 0.00 -- 24.9 105.8
12/25/2018 09:00 455.57 0.00 -- 22.8 109.3
12/25/2018 08:00 455.57 0.00 -- 19.4 108.0
12/25/2018 07:00 455.57 0.00 -- 20.4 111.0
12/25/2018 06:00 455.59 0.00 -- 18.6 110.3
12/25/2018 05:00 455.60 0.00 -- 21.8 114.0
12/25/2018 04:00 455.59 0.00 -- 23.4 113.0
12/25/2018 03:00 455.60 0.00 -- 25.2 115.0
12/25/2018 02:00 455.61 0.00 -- 27.1 114.8
12/25/2018 01:00 455.60 0.00 -- 27.8 115.3
12/25/2018 00:00 455.61 0.00 0.00 29.5 116.5
12/24/2018 23:00 455.61 0.00 -- 30.5 117.3
12/24/2018 22:00 455.61 0.00 -- 29.2 119.0
12/24/2018 21:00 455.66 0.00 -- 31.0 121.5
12/24/2018 20:00 455.65 0.00 -- 29.2 120.8
12/24/2018 19:00 455.64 0.00 -- 29.6 122.5
12/24/2018 18:00 455.63 0.00 -- 30.7 120.8
12/24/2018 17:00 455.64 0.00 -- 30.8 124.0
12/24/2018 16:00 455.68 0.00 -- 32.7 124.8
12/24/2018 15:00 455.66 0.00 -- 35.3 124.0
12/24/2018 14:00 455.67 0.00 -- 38.9 124.8
12/24/2018 13:00 455.67 0.00 -- 38.1 127.5
12/24/2018 12:00 455.65 0.00 -- 32.4 127.0
12/24/2018 11:00 455.69 0.00 -- 27.7 130.0
12/24/2018 10:00 455.68 0.00 -- 23.3 127.8
12/24/2018 09:00 455.70 0.00 -- 20.9 129.0
12/24/2018 08:00 455.69 0.00 -- 18.4 132.8
12/24/2018 07:00 455.71 0.00 -- 18.6 131.0
12/24/2018 06:00 455.69 0.00 -- 18.6 133.8
12/24/2018 05:00 455.72 0.00 -- 19.4 136.0
12/24/2018 04:00 455.75 0.00 -- 18.7 138.8
12/24/2018 03:00 455.72 0.00 -- 18.2 138.3
12/24/2018 02:00 455.79 0.00 -- 17.2 141.0
12/24/2018 01:00 455.76 0.00 -- 14.8 142.5
12/24/2018 00:00 455.79 0.00 0.00 16.0 145.3
12/23/2018 23:00 455.79 0.00 -- 17.2 147.3
12/23/2018 22:00 455.76 0.00 -- 18.5 145.0
12/23/2018 21:00 455.83 0.00 -- 21.0 150.0
12/23/2018 20:00 455.76 0.00 -- 22.3 146.8
12/23/2018 19:00 455.86 0.00 -- 24.2 153.8
12/23/2018 18:00 455.81 0.00 -- 27.3 152.8
12/23/2018 17:00 455.84 0.00 -- 29.5 155.0
12/23/2018 16:00 455.81 0.00 -- 32.0 156.3
12/23/2018 15:00 455.79 0.00 -- 35.1 153.5
12/23/2018 14:00 455.85 0.00 -- 34.3 155.8
12/23/2018 13:00 455.84 0.00 -- 34.1 154.0
12/23/2018 12:00 455.87 0.00 -- 32.8 158.3
12/23/2018 11:00 455.83 0.00 -- 31.4 161.0
12/23/2018 10:00 455.89 0.00 -- 27.9 164.5
12/23/2018 09:00 455.89 0.00 -- 22.5 164.0
12/23/2018 08:00 455.91 0.00 -- 21.8 169.3
12/23/2018 07:00 455.90 0.00 -- 22.0 169.5
12/23/2018 06:00 455.90 0.00 -- 24.0 171.8
12/23/2018 05:00 455.94 0.00 -- 24.7 175.5
12/23/2018 04:00 455.94 0.00 -- 26.4 177.3
12/23/2018 03:00 455.96 0.00 -- 27.5 180.8
12/23/2018 02:00 455.98 0.00 -- 29.2 182.3
12/23/2018 01:00 455.91 0.00 -- 30.6 169.0
12/23/2018 00:00 455.90 0.00 0.00 32.4 169.0
12/22/2018 23:00 455.91 0.00 -- 31.5 171.5
12/22/2018 22:00 455.91 0.00 -- 31.7 170.0
12/22/2018 21:00 455.93 0.00 -- 31.7 175.5
12/22/2018 20:00 455.92 0.00 -- 31.7 177.0
12/22/2018 19:00 455.91 0.00 -- 31.7 173.0
12/22/2018 18:00 455.90 0.00 -- 32.8 176.8
12/22/2018 17:00 455.99 0.00 -- 35.0 182.0
12/22/2018 16:00 455.79 0.00 -- 38.1 151.3
12/22/2018 15:00 455.85 0.00 -- 41.4 156.0
12/22/2018 14:00 455.85 0.00 -- 43.9 152.0
12/22/2018 13:00 455.80 0.00 -- 46.6 151.5
12/22/2018 12:00 455.80 0.00 -- 50.6 151.3
12/22/2018 11:00 455.77 0.01 -- 48.5 145.0
12/22/2018 10:00 455.78 0.02 -- 42.0 142.3
12/22/2018 09:00 455.79 0.00 -- 37.6 138.3
12/22/2018 08:00 455.79 0.00 -- 35.8 141.5
12/22/2018 07:00 455.71 0.01 -- 35.2 134.8
12/22/2018 06:00 455.69 0.00 -- 35.1 131.3
12/22/2018 05:00 455.73 0.00 -- 35.0 132.0
12/22/2018 04:00 455.70 0.00 -- 35.2 127.0
12/22/2018 03:00 455.67 0.01 -- 35.5 124.5
12/22/2018 02:00 455.60 0.03 -- 34.8 115.8
12/22/2018 01:00 455.58 0.00 -- 34.7 113.0
12/22/2018 00:00 455.58 0.01 0.08 34.9 108.0
12/21/2018 23:00 455.54 0.01 -- 35.2 102.8
12/21/2018 22:00 455.49 0.02 -- 35.0 96.5
12/21/2018 21:00 455.46 0.06 -- 34.4 90.5
12/21/2018 20:00 455.40 0.06 -- 34.7 84.8
12/21/2018 19:00 455.37 0.09 -- 34.3 77.0
12/21/2018 18:00 455.32 0.12 -- 33.5 72.0
12/21/2018 17:00 455.28 0.20 -- 34.4 66.3
12/21/2018 16:00 455.24 0.16 -- 34.0 61.5
12/21/2018 15:00 455.21 0.18 -- 34.0 57.5
12/21/2018 14:00 455.19 0.17 -- 33.3 54.3
12/21/2018 13:00 455.17 0.07 -- 33.4 52.3
12/21/2018 12:00 455.16 0.22 -- 33.1 47.3
12/21/2018 11:00 455.13 0.17 -- 32.8 44.3
12/21/2018 10:00 455.11 0.40 -- 33.1 41.5
12/21/2018 09:00 455.08 0.11 -- 32.6 39.3
12/21/2018 08:00 455.06 0.07 -- 32.3 38.0
12/21/2018 07:00 455.06 0.10 -- 31.9 38.0
12/21/2018 06:00 455.06 0.00 -- 31.3 38.0
12/21/2018 05:00 455.06 0.00 -- 31.4 37.5
12/21/2018 04:00 455.05 0.00 -- 31.5 37.3
12/21/2018 03:00 455.05 0.00 -- 31.0 37.0
12/21/2018 02:00 455.05 0.00 -- 30.6 37.0
12/21/2018 01:00 455.05 0.00 -- 31.0 37.0
12/21/2018 00:00 455.05 0.00 2.22 30.3 37.0
12/20/2018 23:00 455.05 0.00 -- 29.0 37.0
12/20/2018 22:00 455.05 0.00 -- 29.1 37.3
12/20/2018 21:00 455.05 0.00 -- 28.3 37.0
12/20/2018 20:00 455.06 0.00 -- 27.9 37.3
12/20/2018 19:00 455.05 0.00 -- 27.9 37.3
12/20/2018 18:00 455.05 0.00 -- 28.3 37.5
12/20/2018 17:00 455.05 0.00 -- 29.4 37.5
12/20/2018 16:00 455.06 0.00 -- 34.9 37.3
12/20/2018 15:00 455.06 0.00 -- 41.2 37.3
12/20/2018 14:00 455.05 0.01 -- 43.5 37.0
12/20/2018 13:00 455.05 0.00 -- 40.2 37.0
12/20/2018 12:00 455.05 0.00 -- 39.7 37.5
12/20/2018 11:00 455.05 0.00 -- 35.3 37.3
12/20/2018 10:00 455.05 0.00 -- 26.3 37.3
12/20/2018 09:00 455.05 0.00 -- 22.2 37.3
12/20/2018 08:00 455.05 0.00 -- 15.7 37.3
12/20/2018 07:00 455.06 0.00 -- 16.4 37.8
12/20/2018 06:00 455.06 0.00 -- 17.3 38.0
12/20/2018 05:00 455.06 0.00 -- 18.7 38.0
12/20/2018 04:00 455.06 0.00 -- 19.7 38.0
12/20/2018 03:00 455.06 0.00 -- 23.0 37.8
12/20/2018 02:00 455.06 0.00 -- 24.1 38.0
12/20/2018 01:00 455.06 0.00 -- 23.1 38.0
12/20/2018 00:00 455.05 0.00 0.01 23.0 37.8
12/19/2018 23:00 455.06 0.00 -- 23.0 38.0
12/19/2018 22:00 455.06 0.00 -- 24.2 38.0
12/19/2018 21:00 455.06 0.00 -- 24.3 38.0
12/19/2018 20:00 455.06 0.00 -- 27.6 38.3
12/19/2018 19:00 455.06 0.00 -- 30.1 38.0
12/19/2018 18:00 455.06 0.00 -- 31.4 38.3
12/19/2018 17:00 455.06 0.00 -- 29.1 38.0
12/19/2018 16:00 455.06 0.00 -- 34.5 38.0
12/19/2018 15:00 455.06 0.00 -- 39.0 38.0
12/19/2018 14:00 455.06 0.00 -- 37.2 38.5
12/19/2018 13:00 455.07 0.00 -- 37.4 38.5
12/19/2018 12:00 455.06 0.00 -- 31.8 38.3
12/19/2018 11:00 455.07 0.00 -- 30.1 38.0
12/19/2018 10:00 455.06 0.00 -- 21.0 38.3
12/19/2018 09:00 455.06 0.00 -- 17.6 38.3
12/19/2018 08:00 455.07 0.00 -- 16.9 38.5
12/19/2018 07:00 455.06 0.00 -- 17.7 38.8
12/19/2018 06:00 455.06 0.00 -- 17.7 38.3
12/19/2018 05:00 455.07 0.00 -- 17.5 38.8
12/19/2018 04:00 455.07 0.00 -- 18.6 39.0
12/19/2018 03:00 455.06 0.00 -- 20.6 38.0
12/19/2018 02:00 455.07 0.00 -- 22.1 38.3
12/19/2018 01:00 455.07 0.00 -- 22.8 39.0
12/19/2018 00:00 455.08 0.00 0.00 21.1 39.3
12/18/2018 23:00 455.07 0.00 -- 20.8 39.8
12/18/2018 22:00 455.09 0.00 -- 21.0 40.3
12/18/2018 21:00 455.07 0.00 -- 21.5 39.5
12/18/2018 20:00 455.08 0.00 -- 22.2 39.5
12/18/2018 19:00 455.09 0.00 -- 22.4 40.8
12/18/2018 18:00 455.09 0.00 -- 22.2 41.0
12/18/2018 17:00 455.09 0.00 -- 23.6 40.8
12/18/2018 16:00 455.09 0.00 -- 24.4 41.3
12/18/2018 15:00 455.10 0.00 -- 24.1 41.8
12/18/2018 14:00 455.09 0.00 -- 24.3 41.0
12/18/2018 13:00 455.09 0.00 -- 24.2 40.8
12/18/2018 12:00 455.09 0.00 -- 25.6 41.0
12/18/2018 11:00 455.08 0.00 -- 23.4 41.0
12/18/2018 10:00 455.09 0.00 -- 22.7 41.8
12/18/2018 09:00 455.08 0.00 -- 21.8 41.3
12/18/2018 08:00 455.10 0.00 -- 21.0 41.8
12/18/2018 07:00 455.10 0.00 -- 20.8 42.0
12/18/2018 06:00 455.11 0.00 -- 20.6 42.8
12/18/2018 05:00 455.11 0.00 -- 20.9 42.5
12/18/2018 04:00 455.09 0.00 -- 21.6 42.3
12/18/2018 03:00 455.10 0.00 -- 23.0 42.5
12/18/2018 02:00 455.10 0.00 -- 25.7 42.5
12/18/2018 01:00 455.10 0.00 -- 27.3 42.3
12/18/2018 00:00 455.11 0.00 0.00 30.3 43.3
12/17/2018 23:00 455.11 0.00 -- 33.1 41.8
12/17/2018 22:00 455.11 0.00 -- 34.8 42.5
12/17/2018 21:00 455.11 0.00 -- 34.4 42.5
12/17/2018 20:00 455.10 0.00 -- 34.6 42.3
12/17/2018 19:00 455.11 0.00 -- 34.7 42.5
12/17/2018 18:00 455.11 0.00 -- 34.7 42.5
12/17/2018 17:00 455.10 0.01 -- 36.5 41.8
12/17/2018 16:00 455.10 0.02 -- 36.5 42.0
12/17/2018 15:00 455.10 0.05 -- 37.4 42.3
12/17/2018 14:00 455.11 0.02 -- 38.1 42.3
12/17/2018 13:00 455.10 0.00 -- 37.0 42.0
12/17/2018 12:00 455.10 0.00 -- 35.7 42.0
12/17/2018 11:00 455.10 0.00 -- 34.3 42.0
12/17/2018 10:00 455.10 0.00 -- 33.8 42.0
12/17/2018 09:00 455.10 0.00 -- 32.7 41.5
12/17/2018 08:00 455.09 0.00 -- 32.2 41.8
12/17/2018 07:00 455.10 0.00 -- 32.1 41.8
12/17/2018 06:00 455.09 0.00 -- 32.3 41.5
12/17/2018 05:00 455.10 0.00 -- 32.4 41.3
12/17/2018 04:00 455.09 0.00 -- 32.4 41.0
12/17/2018 03:00 455.09 0.00 -- 32.3 41.0
12/17/2018 02:00 455.10 0.00 -- 32.4 41.0
12/17/2018 01:00 455.09 0.00 -- 34.5 41.0
12/17/2018 00:00 455.09 0.00 0.10 34.5 41.0
12/16/2018 23:00 455.09 0.00 -- 34.1 40.8
12/16/2018 22:00 455.09 0.00 -- 30.4 41.0
12/16/2018 21:00 455.09 0.00 -- 30.5 40.8
12/16/2018 20:00 455.09 0.00 -- 29.0 41.0
12/16/2018 19:00 455.09 0.00 -- 30.2 40.5
12/16/2018 18:00 455.09 0.00 -- 33.8 41.0
12/16/2018 17:00 455.09 0.00 -- 35.8 41.0
12/16/2018 16:00 455.09 0.00 -- 37.2 41.0
12/16/2018 15:00 455.09 0.00 -- 38.1 41.0
12/16/2018 14:00 455.09 0.00 -- 38.2 41.0
12/16/2018 13:00 455.09 0.00 -- 37.1 40.8
12/16/2018 12:00 455.09 0.00 -- 37.7 41.3
12/16/2018 11:00 455.09 0.00 -- 33.4 40.8
12/16/2018 10:00 455.09 0.00 -- 30.7 41.3
12/16/2018 09:00 455.10 0.00 -- 27.6 41.0
12/16/2018 08:00 455.09 0.00 -- 21.6 41.0
12/16/2018 07:00 455.09 0.00 -- 20.6 41.3
12/16/2018 06:00 455.10 0.00 -- 20.0 41.3
12/16/2018 05:00 455.10 0.00 -- 19.9 41.5
12/16/2018 04:00 455.09 0.00 -- 21.1 41.5
12/16/2018 03:00 455.10 0.00 -- 21.4 41.5
12/16/2018 02:00 455.09 0.00 -- 23.3 41.5
12/16/2018 01:00 455.09 0.00 -- 22.5 41.0
12/16/2018 00:00 455.10 0.00 0.00 23.6 41.3
12/15/2018 23:00 455.09 0.00 -- 24.6 41.8
12/15/2018 22:00 455.10 0.00 -- 26.0 41.5
12/15/2018 21:00 455.10 0.00 -- 26.8 41.8
12/15/2018 20:00 455.10 0.00 -- 28.1 41.8
12/15/2018 19:00 455.09 0.00 -- 29.8 41.3
12/15/2018 18:00 455.09 0.00 -- 30.9 41.8
12/15/2018 17:00 455.10 0.00 -- 33.4 41.8
12/15/2018 16:00 455.09 0.00 -- 38.9 41.8
12/15/2018 15:00 455.10 0.00 -- 42.9 41.8
12/15/2018 14:00 455.10 0.00 -- 44.2 42.0
12/15/2018 13:00 455.10 0.00 -- 42.9 41.8
12/15/2018 12:00 455.10 0.00 -- 44.5 41.3
12/15/2018 11:00 455.10 0.00 -- 44.6 42.0
12/15/2018 10:00 455.09 0.00 -- 39.9 41.3
12/15/2018 09:00 455.09 0.00 -- 32.3 41.3
12/15/2018 08:00 455.10 0.00 -- 30.9 42.0
12/15/2018 07:00 455.09 0.00 -- 32.3 41.5
12/15/2018 06:00 455.10 0.00 -- 34.9 42.0
12/15/2018 05:00 455.09 0.00 -- 42.2 41.0
12/15/2018 04:00 455.09 0.00 -- 41.8 41.5
12/15/2018 03:00 455.10 0.00 -- 40.2 42.0
12/15/2018 02:00 455.09 0.00 -- 39.1 41.5
12/15/2018 01:00 455.09 0.00 -- 39.2 41.5
12/15/2018 00:00 455.10 0.00 0.00 39.6 41.8
12/14/2018 23:00 455.10 0.00 -- 39.1 42.3
12/14/2018 22:00 455.11 0.00 -- 39.1 42.5
12/14/2018 21:00 455.10 0.00 -- 38.0 42.0
12/14/2018 20:00 455.10 0.00 -- 35.8 41.3
12/14/2018 19:00 455.10 0.00 -- 35.3 41.5
12/14/2018 18:00 455.10 0.00 -- 36.6 42.0
12/14/2018 17:00 455.09 0.00 -- 37.0 41.8
12/14/2018 16:00 455.10 0.00 -- 35.5 41.3
12/14/2018 15:00 455.09 0.00 -- 35.9 41.3
12/14/2018 14:00 455.09 0.00 -- 35.7 41.5
12/14/2018 13:00 455.10 0.00 -- 34.5 41.5
12/14/2018 12:00 455.10 0.00 -- 33.4 41.8
12/14/2018 11:00 455.09 0.00 -- 32.6 41.0
12/14/2018 10:00 455.09 0.00 -- 24.4 41.0
12/14/2018 09:00 455.10 0.00 -- 22.6 41.3
12/14/2018 08:00 455.10 0.00 -- 20.9 41.8
12/14/2018 07:00 455.10 0.00 -- 19.5 41.5
12/14/2018 06:00 455.09 0.00 -- 21.2 41.0
12/14/2018 05:00 455.10 0.00 -- 21.4 41.3
12/14/2018 04:00 455.09 0.00 -- 24.9 41.8
12/14/2018 03:00 455.10 0.00 -- 26.0 42.0
12/14/2018 02:00 455.10 0.00 -- 27.3 41.5
12/14/2018 01:00 455.10 0.00 -- 27.1 41.5
12/14/2018 00:00 455.09 0.00 0.00 27.2 41.3
12/13/2018 23:00 455.10 0.00 -- 25.4 42.0
12/13/2018 22:00 455.10 0.00 -- 24.4 42.3
12/13/2018 21:00 455.10 0.00 -- 25.5 41.8
12/13/2018 20:00 455.11 0.00 -- 25.2 41.8
12/13/2018 19:00 455.10 0.00 -- 25.3 42.3
12/13/2018 18:00 455.11 0.00 -- 25.3 42.3
12/13/2018 17:00 455.11 0.00 -- 24.8 42.5
12/13/2018 16:00 455.10 0.00 -- 25.5 42.8
12/13/2018 15:00 455.11 0.00 -- 27.8 42.3
12/13/2018 14:00 455.11 0.00 -- 29.5 42.8
12/13/2018 13:00 455.10 0.00 -- 27.5 42.3
12/13/2018 12:00 455.10 0.00 -- 26.3 42.0
12/13/2018 11:00 455.10 0.00 -- 20.3 41.8
12/13/2018 10:00 455.09 0.00 -- 11.3 41.8
12/13/2018 09:00 455.09 0.00 -- 4.8 41.3
12/13/2018 08:00 455.10 0.00 -- -0.8 41.8
12/13/2018 07:00 455.11 0.00 -- -1.0 42.5
12/13/2018 06:00 455.10 0.00 -- -1.7 42.5
12/13/2018 05:00 455.11 0.00 -- 0.3 42.8
12/13/2018 04:00 455.11 0.00 -- -0.3 43.5
12/13/2018 03:00 455.12 0.00 -- 1.0 43.3
12/13/2018 02:00 455.12 0.00 -- 1.6 44.0
12/13/2018 01:00 455.12 0.00 -- 3.1 44.5
12/13/2018 00:00 455.13 0.00 0.00 5.0 45.0
12/12/2018 23:00 455.12 0.00 -- 7.4 44.5
12/12/2018 22:00 455.12 0.00 -- 10.1 44.5
12/12/2018 21:00 455.14 0.00 -- 12.1 44.8
12/12/2018 20:00 455.13 0.00 -- 11.9 45.0
12/12/2018 19:00 455.13 0.00 -- 14.9 45.5
12/12/2018 18:00 455.13 0.00 -- 19.0 45.3
12/12/2018 17:00 455.13 0.00 -- 21.6 45.3
12/12/2018 16:00 455.14 0.00 -- 23.7 45.5
12/12/2018 15:00 455.14 0.00 -- 26.7 45.8
12/12/2018 14:00 455.14 0.00 -- 26.9 46.3
12/12/2018 13:00 455.14 0.00 -- 27.7 46.0
12/12/2018 12:00 455.14 0.00 -- 28.8 46.0
12/12/2018 11:00 455.14 0.00 -- 30.4 46.0
12/12/2018 10:00 455.13 0.00 -- 29.4 45.8
12/12/2018 09:00 455.14 0.00 -- 27.4 45.8
12/12/2018 08:00 455.14 0.00 -- 19.0 46.0
12/12/2018 07:00 455.14 0.00 -- 14.0 46.0
12/12/2018 06:00 455.15 0.00 -- 12.2 46.3
12/12/2018 05:00 455.14 0.00 -- 13.1 47.3
12/12/2018 04:00 455.15 0.00 -- 13.4 46.8
12/12/2018 03:00 455.14 0.00 -- 11.7 49.0
12/12/2018 02:00 455.15 0.00 -- 9.7 50.0
12/12/2018 01:00 455.15 0.00 -- 8.4 46.8
12/12/2018 00:00 455.15 0.00 0.00 9.3 50.5
12/11/2018 23:00 455.15 0.00 -- 11.4 50.3
12/11/2018 22:00 455.15 0.00 -- 10.7 50.5
12/11/2018 21:00 455.16 0.00 -- 13.4 51.8
12/11/2018 20:00 455.15 0.00 -- 14.7 51.0
12/11/2018 19:00 455.15 0.00 -- 18.1 52.0
12/11/2018 18:00 455.15 0.00 -- 19.7 52.0
12/11/2018 17:00 455.16 0.00 -- 23.6 52.0
12/11/2018 16:00 455.15 0.00 -- 27.3 50.8
12/11/2018 15:00 455.16 0.00 -- 32.5 52.5
12/11/2018 14:00 455.16 0.00 -- 32.5 52.0
12/11/2018 13:00 455.16 0.00 -- 28.3 52.0
12/11/2018 12:00 455.16 0.00 -- 24.3 52.5
12/11/2018 11:00 455.16 0.00 -- 19.2 52.0
12/11/2018 10:00 455.16 0.00 -- 15.1 52.0
12/11/2018 09:00 455.15 0.00 -- 9.9 51.8
12/11/2018 08:00 455.15 0.00 -- 4.2 52.0
12/11/2018 07:00 455.17 0.00 -- 3.3 53.0
12/11/2018 06:00 455.16 0.00 -- 2.9 53.0
12/11/2018 05:00 455.17 0.00 -- 5.7 53.3
12/11/2018 04:00 455.17 0.00 -- 5.4 54.0
12/11/2018 03:00 455.17 0.00 -- 5.3 53.8
12/11/2018 02:00 455.17 0.00 -- 7.1 54.0
12/11/2018 01:00 455.17 0.00 -- 7.8 54.0
12/11/2018 00:00 455.17 0.00 0.00 8.8 54.5
12/10/2018 23:00 455.17 0.00 -- 11.6 53.8
12/10/2018 22:00 455.18 0.00 -- 11.7 54.3
12/10/2018 21:00 455.18 0.00 -- 15.0 54.5
12/10/2018 20:00 455.18 0.00 -- 15.8 55.0
12/10/2018 19:00 455.18 0.00 -- 18.1 54.8
12/10/2018 18:00 455.18 0.00 -- 22.1 55.0
12/10/2018 17:00 455.19 0.00 -- 23.5 55.5
12/10/2018 16:00 455.18 0.00 -- 26.2 54.5
12/10/2018 15:00 455.18 0.00 -- 29.9 55.8
12/10/2018 14:00 455.18 0.00 -- 31.4 55.5
12/10/2018 13:00 455.18 0.00 -- 29.6 55.0
12/10/2018 12:00 455.19 0.00 -- 29.2 55.5
12/10/2018 11:00 455.19 0.00 -- 28.1 55.3
12/10/2018 10:00 455.17 0.00 -- 28.3 54.5
12/10/2018 09:00 455.19 0.00 -- 27.4 55.8
12/10/2018 08:00 455.18 0.00 -- 26.4 55.5
12/10/2018 07:00 455.19 0.00 -- 27.3 55.5
12/10/2018 06:00 455.19 0.00 -- 28.4 55.5
12/10/2018 05:00 455.19 0.00 -- 27.0 56.3
12/10/2018 04:00 455.19 0.00 -- 29.1 56.5
12/10/2018 03:00 455.19 0.00 -- 26.3 56.3
12/10/2018 02:00 455.19 0.00 -- 18.7 56.3
12/10/2018 01:00 455.19 0.00 -- 17.1 56.5
12/10/2018 00:00 455.19 0.00 0.00 16.3 56.8
12/09/2018 23:00 455.20 0.00 -- 16.6 56.5
12/09/2018 22:00 455.20 0.00 -- 16.8 56.8
12/09/2018 21:00 455.20 0.00 -- 18.8 56.8
12/09/2018 20:00 455.19 0.00 -- 21.4 57.3
12/09/2018 19:00 455.19 0.00 -- 22.3 56.8
12/09/2018 18:00 455.19 0.00 -- 27.5 57.8
12/09/2018 17:00 455.21 0.00 -- 28.4 57.3
12/09/2018 16:00 455.20 0.00 -- 28.7 57.3
12/09/2018 15:00 455.20 0.00 -- 29.2 57.5
12/09/2018 14:00 455.20 0.00 -- 31.5 57.3
12/09/2018 13:00 455.19 0.00 -- 31.1 57.8
12/09/2018 12:00 455.20 0.00 -- 28.8 57.8
12/09/2018 11:00 455.19 0.00 -- 24.0 56.5
12/09/2018 10:00 455.19 0.00 -- 20.8 56.3
12/09/2018 09:00 455.19 0.00 -- 17.4 56.3
12/09/2018 08:00 455.20 0.00 -- 11.2 57.3
12/09/2018 07:00 455.20 0.00 -- 9.7 58.0
12/09/2018 06:00 455.22 0.00 -- 8.8 59.0
12/09/2018 05:00 455.21 0.00 -- 11.6 58.3
12/09/2018 04:00 455.21 0.00 -- 11.7 59.3
12/09/2018 03:00 455.21 0.00 -- 9.6 58.5
12/09/2018 02:00 455.22 0.00 -- 8.6 59.5
12/09/2018 01:00 455.22 0.00 -- 9.1 60.0
12/09/2018 00:00 455.22 0.00 0.00 10.2 60.0
12/08/2018 23:00 455.23 0.00 -- 10.7 61.0
12/08/2018 22:00 455.23 0.00 -- 11.1 60.8
12/08/2018 21:00 455.22 0.00 -- 11.4 61.5
12/08/2018 20:00 455.23 0.00 -- 13.2 61.0
12/08/2018 19:00 455.22 0.00 -- 14.2 60.8
12/08/2018 18:00 455.23 0.00 -- 17.9 61.0
12/08/2018 17:00 455.24 0.00 -- 17.5 61.8
12/08/2018 16:00 455.23 0.00 -- 19.8 61.5
12/08/2018 15:00 455.24 0.00 -- 22.1 61.3
12/08/2018 14:00 455.23 0.00 -- 22.2 60.8
12/08/2018 13:00 455.23 0.00 -- 23.4 61.5
12/08/2018 12:00 455.23 0.00 -- 22.9 61.5
12/08/2018 11:00 455.23 0.00 -- 22.6 60.8
12/08/2018 10:00 455.25 0.00 -- 16.2 62.0
12/08/2018 09:00 455.24 0.00 -- 9.8 62.8
12/08/2018 08:00 455.24 0.00 -- 4.7 63.3
12/08/2018 07:00 455.25 0.00 -- 4.2 63.0
12/08/2018 06:00 455.25 0.00 -- 5.7 62.8
12/08/2018 05:00 455.24 0.00 -- 7.2 63.8
12/08/2018 04:00 455.25 0.00 -- 9.5 64.0
12/08/2018 03:00 455.25 0.00 -- 11.0 64.0
12/08/2018 02:00 455.25 0.00 -- 12.9 64.3
12/08/2018 01:00 455.27 0.00 -- 14.3 65.8
12/08/2018 00:00 455.28 0.00 0.00 15.3 65.8
12/07/2018 23:00 455.27 0.00 -- 16.5 66.0
12/07/2018 22:00 455.27 0.00 -- 17.2 66.0
12/07/2018 21:00 455.27 0.00 -- 19.1 66.5
12/07/2018 20:00 455.27 0.00 -- 19.6 65.5
12/07/2018 19:00 455.27 0.00 -- 20.8 66.8
12/07/2018 18:00 455.28 0.00 -- 22.1 67.3
12/07/2018 17:00 455.27 0.00 -- 22.7 66.8
12/07/2018 16:00 455.28 0.00 -- 24.7 67.3
12/07/2018 15:00 455.28 0.00 -- 26.6 67.8
12/07/2018 14:00 455.28 0.00 -- 28.8 68.3
12/07/2018 13:00 455.28 0.00 -- 29.9 68.5
12/07/2018 12:00 455.29 0.00 -- 30.0 69.0
12/07/2018 11:00 455.28 0.00 -- 29.9 69.3
12/07/2018 10:00 455.28 0.00 -- 29.0 68.0
12/07/2018 09:00 455.29 0.00 -- 31.4 69.3
12/07/2018 08:00 455.30 0.00 -- 29.9 69.3
12/07/2018 07:00 455.28 0.00 -- 22.7 68.8
12/07/2018 06:00 455.30 0.00 -- 23.0 69.8
12/07/2018 05:00 455.31 0.00 -- 27.8 70.0
12/07/2018 04:00 455.30 0.00 -- 27.9 70.3
12/07/2018 03:00 455.29 0.00 -- 29.1 70.3
12/07/2018 02:00 455.31 0.00 -- 26.1 71.3
12/07/2018 01:00 455.31 0.00 -- 29.2 71.5
12/07/2018 00:00 455.30 0.00 0.00 29.7 71.5
12/06/2018 23:00 455.31 0.00 -- 30.8 73.8
12/06/2018 22:00 455.32 0.00 -- 31.0 73.0
12/06/2018 21:00 455.32 0.00 -- 30.6 72.3
12/06/2018 20:00 455.31 0.00 -- 30.0 72.8
12/06/2018 19:00 455.33 0.00 -- 29.7 72.3
12/06/2018 18:00 455.32 0.00 -- 31.0 73.3
12/06/2018 17:00 455.32 0.00 -- 32.4 74.5
12/06/2018 16:00 455.31 0.00 -- 33.8 73.8
12/06/2018 15:00 455.33 0.00 -- 35.0 73.0
12/06/2018 14:00 455.33 0.00 -- 33.8 74.3
12/06/2018 13:00 455.34 0.00 -- 35.3 74.5
12/06/2018 12:00 455.34 0.00 -- 34.6 74.5
12/06/2018 11:00 455.33 0.00 -- 34.3 73.8
12/06/2018 10:00 455.32 0.00 -- 28.6 74.3
12/06/2018 09:00 455.34 0.00 -- 22.8 74.8
12/06/2018 08:00 455.35 0.00 -- 18.1 75.5
12/06/2018 07:00 455.34 0.00 -- 18.3 75.3
12/06/2018 06:00 455.34 0.00 -- 18.5 75.8
12/06/2018 05:00 455.33 0.00 -- 18.6 75.5
12/06/2018 04:00 455.34 0.00 -- 19.6 76.5
12/06/2018 03:00 455.36 0.00 -- 18.8 77.8
12/06/2018 02:00 455.35 0.00 -- 17.1 77.0
12/06/2018 01:00 455.36 0.00 -- 15.3 77.8
12/06/2018 00:00 455.35 0.00 0.00 13.3 78.8
12/05/2018 23:00 455.35 0.00 -- 13.0 78.5
12/05/2018 22:00 455.35 0.00 -- 15.2 79.0
12/05/2018 21:00 455.36 0.00 -- 16.9 79.8
12/05/2018 20:00 455.38 0.00 -- 18.6 80.0
12/05/2018 19:00 455.39 0.00 -- 21.7 80.8
12/05/2018 18:00 455.37 0.00 -- 24.3 79.8
12/05/2018 17:00 455.38 0.00 -- 25.6 80.8
12/05/2018 16:00 455.36 0.00 -- 28.9 79.8
12/05/2018 15:00 455.39 0.00 -- 31.3 81.5
12/05/2018 14:00 455.39 0.00 -- 31.9 81.3
12/05/2018 13:00 455.39 0.00 -- 32.5 82.8
12/05/2018 12:00 455.39 0.00 -- 29.5 82.3
12/05/2018 11:00 455.38 0.00 -- 27.4 81.8
12/05/2018 10:00 455.40 0.00 -- 22.3 82.0
12/05/2018 09:00 455.41 0.00 -- 16.3 84.3
12/05/2018 08:00 455.40 0.00 -- 12.2 83.3
12/05/2018 07:00 455.38 0.00 -- 11.4 83.5
12/05/2018 06:00 455.40 0.00 -- 11.9 83.5
12/05/2018 05:00 455.42 0.00 -- 13.7 85.8
12/05/2018 04:00 455.40 0.00 -- 15.7 84.5
12/05/2018 03:00 455.41 0.00 -- 18.2 84.8
12/05/2018 02:00 455.41 0.00 -- 20.7 86.5
12/05/2018 01:00 455.45 0.00 -- 22.0 90.8
12/05/2018 00:00 455.45 0.00 0.00 22.4 88.3
12/04/2018 23:00 455.41 0.00 -- 21.0 87.0
12/04/2018 22:00 455.43 0.00 -- 21.7 89.8
12/04/2018 21:00 455.41 0.00 -- 22.2 87.8
12/04/2018 20:00 455.44 0.00 -- 22.7 89.5
12/04/2018 19:00 455.44 0.00 -- 23.4 89.0
12/04/2018 18:00 455.47 0.00 -- 23.3 91.3
12/04/2018 17:00 455.45 0.00 -- 24.0 91.0
12/04/2018 16:00 455.46 0.00 -- 24.9 90.8
12/04/2018 15:00 455.46 0.00 -- 26.1 92.3
12/04/2018 14:00 455.44 0.00 -- 26.7 92.0
12/04/2018 13:00 455.46 0.00 -- 26.4 93.0
12/04/2018 12:00 455.47 0.00 -- 27.3 92.0
12/04/2018 11:00 455.47 0.00 -- 26.8 93.8
12/04/2018 10:00 455.47 0.00 -- 27.0 94.8
12/04/2018 09:00 455.45 0.00 -- 27.3 93.0
12/04/2018 08:00 455.47 0.00 -- 27.3 94.0
12/04/2018 07:00 455.49 0.00 -- 29.3 96.3
12/04/2018 06:00 455.48 0.00 -- 30.3 96.3
12/04/2018 05:00 455.47 0.00 -- 31.2 94.5
12/04/2018 04:00 455.48 0.00 -- 31.9 96.5
12/04/2018 03:00 455.47 0.00 -- 32.0 96.0
12/04/2018 02:00 455.47 0.00 -- 31.0 96.8
12/04/2018 01:00 455.47 0.00 -- 31.1 94.5
12/04/2018 00:00 455.50 0.00 0.00 31.7 96.3
12/03/2018 23:00 455.49 0.00 -- 32.9 95.5
12/03/2018 22:00 455.50 0.00 -- 34.2 96.0
12/03/2018 21:00 455.48 0.00 -- 36.3 95.8
12/03/2018 20:00 455.47 0.00 -- 39.2 94.3
12/03/2018 19:00 455.45 0.02 -- 41.6 92.0
12/03/2018 18:00 455.48 0.03 -- 44.5 94.8
12/03/2018 17:00 455.46 0.01 -- 43.5 92.0
12/03/2018 16:00 455.47 0.03 -- 45.0 94.3
12/03/2018 15:00 455.43 0.05 -- 46.9 92.5
12/03/2018 14:00 455.45 0.06 -- 47.1 92.5
12/03/2018 13:00 455.46 0.13 -- 49.7 92.8
12/03/2018 12:00 455.46 0.17 -- 47.3 92.0
12/03/2018 11:00 455.47 0.10 -- 44.2 93.0
12/03/2018 10:00 455.44 0.04 -- 37.8 90.5
12/03/2018 09:00 455.45 0.00 -- 35.1 89.0
12/03/2018 08:00 455.43 0.00 -- 32.5 89.8
12/03/2018 07:00 455.46 0.00 -- 32.5 89.8
12/03/2018 06:00 455.43 0.01 -- 32.5 87.8
12/03/2018 05:00 455.41 0.00 -- 32.6 85.8
12/03/2018 04:00 455.42 0.00 -- 31.9 85.0
12/03/2018 03:00 455.40 0.00 -- 31.9 84.3
12/03/2018 02:00 455.38 0.00 -- 33.0 81.5
12/03/2018 01:00 455.39 0.00 -- 32.8 81.3
12/03/2018 00:00 455.38 0.00 0.65 32.8 79.8
12/02/2018 23:00 455.39 0.02 -- 33.9 79.8
12/02/2018 22:00 455.36 0.01 -- 34.0 77.5
12/02/2018 21:00 455.36 0.02 -- 34.3 76.0
12/02/2018 20:00 455.34 0.02 -- 33.9 74.3
12/02/2018 19:00 455.33 0.02 -- 34.2 73.8
12/02/2018 18:00 455.33 0.05 -- 34.4 72.8
12/02/2018 17:00 455.31 0.09 -- 33.8 71.0
12/02/2018 16:00 455.31 0.10 -- 34.5 70.8
12/02/2018 15:00 455.29 0.13 -- 34.5 69.0
12/02/2018 14:00 455.30 0.12 -- 34.1 68.8
12/02/2018 13:00 455.27 0.13 -- 34.0 66.5
12/02/2018 12:00 455.27 0.05 -- 33.8 66.8
12/02/2018 11:00 455.27 0.00 -- 33.3 66.3
12/02/2018 10:00 455.28 0.00 -- 32.8 66.5
12/02/2018 09:00 455.25 0.00 -- 31.8 66.5
12/02/2018 08:00 455.26 0.00 -- 30.2 65.0
12/02/2018 07:00 455.27 0.00 -- 29.3 66.0
12/02/2018 06:00 455.26 0.00 -- 29.1 65.0
12/02/2018 05:00 455.26 0.00 -- 29.1 65.5
12/02/2018 04:00 455.26 0.00 -- 29.4 65.5
12/02/2018 03:00 455.26 0.00 -- 28.8 65.3
12/02/2018 02:00 455.26 0.00 -- 28.4 65.0
12/02/2018 01:00 455.26 0.00 -- 27.8 65.0
12/02/2018 00:00 455.27 0.00 0.76 27.6 65.5
12/01/2018 23:00 455.27 0.00 -- 27.4 65.5
12/01/2018 22:00 455.27 0.00 -- 26.8 66.0
12/01/2018 21:00 455.26 0.00 -- 27.1 66.3
12/01/2018 20:00 455.27 0.00 -- 27.5 65.8
12/01/2018 19:00 455.27 0.00 -- 27.9 66.5
12/01/2018 18:00 455.28 0.00 -- 29.2 67.0
12/01/2018 17:00 455.28 0.00 -- 31.9 67.0
12/01/2018 16:00 455.26 0.01 -- 37.6 66.5
12/01/2018 15:00 455.27 0.02 -- 43.5 66.8
12/01/2018 14:00 455.28 0.02 -- 42.7 67.5
12/01/2018 13:00 455.28 0.01 -- 42.2 67.0
12/01/2018 12:00 455.28 0.01 -- 41.9 67.5
12/01/2018 11:00 455.29 0.00 -- 38.3 67.8
12/01/2018 10:00 455.28 0.00 -- 33.8 67.5
12/01/2018 09:00 455.29 0.00 -- 30.5 68.3
12/01/2018 08:00 455.28 0.00 -- 24.9 68.0
12/01/2018 07:00 455.30 0.00 -- 25.0 68.5
12/01/2018 06:00 455.28 0.00 -- 26.5 69.5
12/01/2018 05:00 455.30 0.00 -- 27.5 68.8
12/01/2018 04:00 455.30 0.00 -- 29.5 69.0
12/01/2018 03:00 455.30 0.00 -- 31.1 69.5
12/01/2018 02:00 455.29 0.00 -- 31.4 69.5
12/01/2018 01:00 455.28 0.00 -- 31.7 70.3
12/01/2018 00:00 455.30 0.00 0.07 31.9 70.0
11/30/2018 23:00 455.30 0.00 -- 32.0 70.0
11/30/2018 22:00 455.30 0.00 -- 32.4 70.3
11/30/2018 21:00 455.29 0.00 -- 32.6 69.8
11/30/2018 20:00 455.29 0.00 -- 33.0 71.0
11/30/2018 19:00 455.31 0.00 -- 33.9 71.0
11/30/2018 18:00 455.31 0.00 -- 34.7 71.8
11/30/2018 17:00 455.30 0.00 -- 35.7 71.5
11/30/2018 16:00 455.32 0.01 -- 37.3 71.8
11/30/2018 15:00 455.30 0.01 -- 38.5 71.8
11/30/2018 14:00 455.32 0.03 -- 40.2 72.3
11/30/2018 13:00 455.31 0.00 -- 41.1 72.8
11/30/2018 12:00 455.32 0.00 -- 40.8 72.8
11/30/2018 11:00 455.32 0.00 -- 39.2 72.5
11/30/2018 10:00 455.31 0.00 -- 32.8 72.5
11/30/2018 09:00 455.32 0.00 -- 29.4 73.3
11/30/2018 08:00 455.33 0.00 -- 23.7 73.3
11/30/2018 07:00 455.31 0.00 -- 23.2 73.0
11/30/2018 06:00 455.33 0.00 -- 23.8 73.8
11/30/2018 05:00 455.32 0.00 -- 24.6 73.5
11/30/2018 04:00 455.32 0.00 -- 25.7 73.8
11/30/2018 03:00 455.34 0.00 -- 26.6 73.8
11/30/2018 02:00 455.32 0.00 -- 29.2 74.5
11/30/2018 01:00 455.35 0.00 -- 29.2 75.0
11/30/2018 00:00 455.33 0.00 0.05 32.5 75.0
11/29/2018 23:00 455.34 0.00 -- 33.0 74.5
11/29/2018 22:00 455.35 0.00 -- 34.1 76.8
11/29/2018 21:00 455.35 0.00 -- 34.5 76.3
11/29/2018 20:00 455.34 0.00 -- 34.7 75.3
11/29/2018 19:00 455.35 0.00 -- 34.2 76.5
11/29/2018 18:00 455.35 0.00 -- 34.6 76.5
11/29/2018 17:00 455.35 0.00 -- 34.7 76.3
11/29/2018 16:00 455.36 0.00 -- 35.6 78.0
11/29/2018 15:00 455.36 0.01 -- 35.9 78.5
11/29/2018 14:00 455.37 0.02 -- 37.0 79.0
11/29/2018 13:00 455.36 0.04 -- 38.2 79.8
11/29/2018 12:00 455.36 0.03 -- 38.0 79.5
11/29/2018 11:00 455.36 0.02 -- 38.6 79.3
11/29/2018 10:00 455.37 0.01 -- 37.6 80.3
11/29/2018 09:00 455.37 0.00 -- 37.6 79.3
11/29/2018 08:00 455.35 0.00 -- 36.2 78.3
11/29/2018 07:00 455.36 0.00 -- 35.6 79.5
11/29/2018 06:00 455.37 0.00 -- 35.8 79.3
11/29/2018 05:00 455.38 0.00 -- 36.3 80.5
11/29/2018 04:00 455.36 0.01 -- 37.0 79.8
11/29/2018 03:00 455.39 0.00 -- 36.9 80.3
11/29/2018 02:00 455.38 0.01 -- 37.4 79.8
11/29/2018 01:00 455.37 0.00 -- 37.2 80.8
11/29/2018 00:00 455.37 0.00 0.15 36.3 80.0
11/28/2018 23:00 455.37 0.01 -- 32.9 80.3
11/28/2018 22:00 455.39 0.00 -- 32.6 81.3
11/28/2018 21:00 455.39 0.00 -- 32.5 81.3
11/28/2018 20:00 455.37 0.01 -- 32.6 80.0
11/28/2018 19:00 455.38 0.01 -- 33.1 81.5
11/28/2018 18:00 455.38 0.01 -- 34.1 80.0
11/28/2018 17:00 455.37 0.03 -- 35.0 80.5
11/28/2018 16:00 455.36 0.03 -- 36.9 80.0
11/28/2018 15:00 455.36 0.04 -- 38.5 80.0
11/28/2018 14:00 455.37 0.04 -- 39.7 80.0
11/28/2018 13:00 455.37 0.04 -- 39.8 80.8
11/28/2018 12:00 455.36 0.03 -- 38.7 79.5
11/28/2018 11:00 455.37 0.03 -- 39.1 80.8
11/28/2018 10:00 455.37 0.01 -- 38.0 79.5
11/28/2018 09:00 455.35 0.01 -- 35.1 78.5
11/28/2018 08:00 455.37 0.00 -- 34.0 79.8
11/28/2018 07:00 455.37 0.01 -- 33.5 79.0
11/28/2018 06:00 455.37 0.01 -- 34.1 80.0
11/28/2018 05:00 455.36 0.00 -- 34.8 79.0
11/28/2018 04:00 455.36 0.01 -- 34.6 78.0
11/28/2018 03:00 455.37 0.02 -- 35.0 78.8
11/28/2018 02:00 455.37 0.02 -- 34.7 78.0
11/28/2018 01:00 455.36 0.01 -- 33.4 78.8
11/28/2018 00:00 455.35 0.01 0.38 33.7 77.5
11/27/2018 23:00 455.34 0.02 -- 33.8 77.0
11/27/2018 22:00 455.34 0.01 -- 33.3 77.3
11/27/2018 21:00 455.35 0.03 -- 33.1 75.3
11/27/2018 20:00 455.34 0.03 -- 33.4 75.8
11/27/2018 19:00 455.33 0.03 -- 33.3 77.0
11/27/2018 18:00 455.34 0.00 -- 32.8 75.0
11/27/2018 17:00 455.34 0.00 -- 33.0 74.5
11/27/2018 16:00 455.33 0.00 -- 33.1 74.3
11/27/2018 15:00 455.33 0.00 -- 34.1 73.5
11/27/2018 14:00 455.31 0.00 -- 34.4 71.8
11/27/2018 13:00 455.31 0.00 -- 34.6 72.5
11/27/2018 12:00 455.32 0.00 -- 34.1 71.5
11/27/2018 11:00 455.30 0.00 -- 33.5 70.5
11/27/2018 10:00 455.31 0.00 -- 33.2 71.3
11/27/2018 09:00 455.31 0.00 -- 32.9 70.7
11/27/2018 08:00 455.30 0.00 -- 32.8 70.0
11/27/2018 07:00 455.30 0.00 -- 32.8 70.0
11/27/2018 06:00 455.30 0.00 -- 32.7 70.0
11/27/2018 05:00 455.29 0.00 -- 32.7 70.0
11/27/2018 04:00 455.29 0.00 -- 32.7 70.0
11/27/2018 03:00 455.29 0.00 -- 32.7 70.0
11/27/2018 02:00 455.29 0.00 -- 32.7 70.0
11/27/2018 01:00 455.29 0.00 -- 32.6 70.0
11/27/2018 00:00 455.28 0.00 0.14 32.6 70.0
11/26/2018 23:00 455.28 0.00 -- 32.6 70.0
11/26/2018 22:00 455.28 0.00 -- 32.6 67.0
11/26/2018 21:00 455.28 0.00 -- 32.7 67.0
11/26/2018 20:00 455.27 0.00 -- 32.7 66.3
11/26/2018 19:00 455.26 0.01 -- 33.2 65.0
11/26/2018 18:00 455.26 0.01 -- 33.2 65.0
11/26/2018 17:00 455.26 0.01 -- 33.4 65.0
11/26/2018 16:00 455.25 0.01 -- 33.6 64.0
11/26/2018 15:00 455.25 0.01 -- 33.8 63.8
11/26/2018 14:00 455.25 0.02 -- 34.2 63.3
11/26/2018 13:00 455.25 0.02 -- 34.5 63.8
11/26/2018 12:00 455.24 0.02 -- 34.0 63.5
11/26/2018 11:00 455.25 0.02 -- 34.3 62.5
11/26/2018 10:00 455.25 0.00 -- 33.4 63.0
11/26/2018 09:00 455.24 0.01 -- 33.6 62.5
11/26/2018 08:00 455.24 0.01 -- 33.8 62.5
11/26/2018 07:00 455.23 0.01 -- 34.0 62.0
11/26/2018 06:00 455.24 0.00 -- 34.1 62.5
11/26/2018 05:00 455.25 0.01 -- 33.9 62.3
11/26/2018 04:00 455.25 0.01 -- 33.6 62.0
11/26/2018 03:00 455.23 0.00 -- 33.6 61.8
11/26/2018 02:00 455.24 0.00 -- 33.8 62.0
11/26/2018 01:00 455.24 0.02 -- 34.3 61.8
11/26/2018 00:00 455.24 0.00 0.20 34.6 62.0
11/25/2018 23:00 455.23 0.01 -- 34.6 61.0
11/25/2018 22:00 455.23 0.01 -- 34.0 61.0
11/25/2018 21:00 455.23 0.00 -- 34.4 61.5
11/25/2018 20:00 455.23 0.02 -- 34.7 60.5
11/25/2018 19:00 455.23 0.01 -- 35.2 61.0
11/25/2018 18:00 455.23 0.02 -- 36.1 60.8
11/25/2018 17:00 455.23 0.03 -- 36.9 61.3
11/25/2018 16:00 455.22 0.04 -- 38.6 60.3
11/25/2018 15:00 455.23 0.05 -- 38.5 60.3
11/25/2018 14:00 455.22 0.03 -- 37.4 60.0
11/25/2018 13:00 455.23 0.04 -- 36.6 60.0
11/25/2018 12:00 455.22 0.06 -- 34.2 60.0
11/25/2018 11:00 455.22 0.05 -- 33.3 60.8
11/25/2018 10:00 455.22 0.02 -- 32.6 60.0
11/25/2018 09:00 455.22 0.00 -- 32.1 58.8
11/25/2018 08:00 455.21 0.00 -- 31.4 59.3
11/25/2018 07:00 455.22 0.00 -- 30.8 59.3
11/25/2018 06:00 455.22 0.00 -- 31.0 59.0
11/25/2018 05:00 455.21 0.00 -- 31.0 59.5
11/25/2018 04:00 -- -- -- 31.2 59.0
11/25/2018 03:00 -- -- -- 30.5 59.3
11/25/2018 02:00 -- -- -- 29.8 60.0
11/25/2018 01:00 -- -- -- 29.1 59.5
11/25/2018 00:00 -- -- 0.39 27.3 59.8